GFSGL_700_rhum_000.txt.gz
RH
44 47 51 55 56 56 58 61 66 68 61 42 25 21 19 18 17 17 17 18 18 20 21 20 20 19 20 23 26 27 24 19 16 23 17 14 11 11 10 10 11 18 36
50 53 57 60 61 60 62 64 68 69 55 29 23 20 20 18 18 18 18 20 21 21 21 20 20 23 27 30 30 28 25 20 15 14 16 13 11 11 11 11 14 23 33
56 59 62 65 65 64 64 68 70 62 34 24 22 21 19 19 19 20 21 22 23 23 21 23 29 31 31 32 30 25 21 17 15 18 13 13 13 16 16 21 26 30 34
59 63 66 66 65 66 68 69 64 33 22 22 22 21 21 21 21 22 23 24 25 24 29 34 33 30 27 25 22 19 17 18 19 22 22 21 55 55 67 49 30 32 31
60 66 67 65 66 68 68 63 25 18 22 22 21 22 22 23 24 25 26 25 27 34 34 28 22 19 16 15 18 19 23 25 34 55 58 89 74 56 55 45 39 41 40
64 66 66 66 68 64 57 13 17 23 22 22 23 23 24 27 29 30 30 32 36 33 23 17 12 8 8 12 18 25 34 78 85 99 100 92 76 64 50 47 51 53 52
64 65 66 65 61 43 10 19 22 21 22 24 24 25 29 32 32 32 37 37 30 20 14 8 5 7 11 15 17 26 44 92 100 100 99 81 59 57 60 58 65 82 78
65 66 62 57 22 14 21 20 20 21 23 23 27 31 34 34 35 39 37 30 18 12 8 6 7 9 13 20 37 75 100 99 96 85 71 67 64 66 72 94 92 92 91
64 60 40 18 18 20 19 19 19 21 24 28 32 33 34 39 41 37 29 18 14 10 7 8 13 19 31 47 100 100 78 75 71 65 61 63 73 92 98 98 94 98 89
51 31 17 18 17 18 18 18 21 23 26 28 32 40 43 44 38 28 17 15 12 8 7 11 21 35 52 100 90 72 70 63 55 54 59 83 99 100 100 100 100 99 94
19 16 15 15 17 17 17 22 24 25 25 32 38 43 43 37 27 18 15 10 8 9 13 22 30 44 65 63 68 65 61 61 62 78 88 97 99 98 99 100 100 99 94
15 14 17 18 16 18 23 26 24 25 33 37 38 39 36 29 20 17 11 9 13 19 25 31 42 53 57 60 60 59 63 83 90 90 96 96 94 95 95 96 97 98 99
20 21 16 17 21 24 22 22 28 34 36 38 37 35 32 24 20 13 9 10 19 27 34 36 48 52 55 57 60 79 97 93 90 89 90 95 96 96 97 96 98 97 97
20 18 20 23 24 21 23 28 34 38 39 38 35 33 28 23 15 10 9 15 24 30 35 40 48 53 57 61 90 96 94 94 96 95 94 96 97 95 96 95 95 96 95
21 22 23 21 20 26 31 34 39 43 39 35 33 28 25 19 11 9 16 23 31 36 38 43 47 50 55 83 88 98 97 96 94 96 94 93 90 79 89 97 98 97 97
21 21 19 21 27 30 35 42 46 40 36 34 30 25 18 11 9 15 22 29 35 39 40 46 50 63 85 87 90 92 97 95 94 94 95 96 83 79 90 97 99 98 95
19 18 23 28 32 36 39 40 38 37 36 32 27 20 12 10 15 22 27 32 38 41 46 52 68 87 88 93 95 95 92 94 95 97 98 95 92 100 98 98 97 97 98
19 24 26 31 37 40 40 40 40 38 36 31 21 13 10 14 22 26 31 33 39 45 50 71 88 91 94 96 96 95 93 93 94 95 98 100 100 100 97 98 94 95 96
23 26 33 38 40 42 42 42 40 37 32 24 14 10 12 18 25 32 35 38 42 45 68 91 94 95 96 97 98 97 97 95 95 98 100 100 100 98 99 98 97 100 100
25 30 35 40 45 45 45 42 38 32 24 13 10 11 12 19 26 31 36 41 44 54 85 94 95 95 96 96 97 98 99 98 97 100 100 100 100 99 98 97 97 98 99
29 35 41 46 47 45 42 39 32 23 12 10 12 14 21 28 33 34 36 44 44 67 89 94 96 96 97 95 96 96 98 100 98 100 100 100 100 100 100 99 100 100 100
35 40 45 47 44 43 38 30 21 10 10 12 13 20 28 34 34 36 40 43 50 88 92 93 98 98 96 97 96 97 99 95 96 99 100 100 100 100 98 100 100 100 99
37 44 46 44 42 37 28 16 7 9 12 13 16 23 30 33 32 35 40 43 72 92 96 98 99 98 100 100 100 99 95 95 97 98 98 99 100 99 99 99 100 100 100
46 47 44 40 34 24 9 5 7 10 13 16 22 27 33 33 31 36 40 48 83 96 97 99 99 100 99 100 100 98 97 100 100 96 96 100 100 100 100 100 100 100 100
46 41 38 31 17 4 4 6 7 11 16 21 26 31 35 32 31 37 39 62 92 96 99 100 99 99 100 100 100 100 100 100 100 100 100 98 95 96 100 97 98 100 100
40 36 27 9 3 5 6 7 12 18 22 28 31 36 35 29 32 35 42 79 94 99 100 99 98 99 100 100 100 100 100 100 100 98 90 81 80 83 90 96 99 100 99

GFSGL_700_rhum_003.txt.gz
RH
45 47 51 54 57 61 63 65 66 66 67 68 67 44 16 19 22 20 20 20 19 19 19 18 15 14 16 18 19 20 21 24 22 15 17 18 19 19 18 16 16 16 21
49 51 55 61 64 67 68 68 67 68 68 68 59 17 18 22 20 20 21 20 20 20 19 16 18 19 19 18 18 18 16 13 12 12 7 8 12 12 16 17 19 24 40
54 58 63 68 71 73 72 68 68 69 68 64 20 17 22 21 22 22 22 22 23 21 20 21 22 22 20 18 17 13 8 6 8 16 15 13 16 21 21 22 31 33 31
60 64 69 74 77 76 71 68 69 68 65 21 17 22 21 22 23 22 24 24 22 24 27 24 25 21 18 15 11 6 6 8 13 21 27 35 49 46 70 74 41 45 38
65 69 74 78 78 73 68 68 68 61 18 17 21 21 22 22 22 24 23 23 24 25 25 26 20 18 14 8 6 7 11 16 26 65 63 77 75 79 80 72 58 47 42
67 71 76 76 72 69 67 66 53 13 18 19 20 22 23 23 25 25 25 23 25 26 25 21 19 14 8 6 9 17 29 53 90 100 100 98 80 84 72 57 51 56 62
69 71 70 70 70 68 62 34 13 18 18 20 21 22 25 25 24 23 22 24 28 26 22 20 15 8 8 12 21 30 58 63 85 100 98 77 68 58 64 73 87 83 71
73 71 70 70 67 55 21 16 16 17 19 20 23 24 24 24 21 24 26 27 27 23 20 13 8 9 16 25 36 47 49 58 68 60 58 60 70 91 100 97 93 85 80
70 70 69 62 42 23 16 15 17 18 20 25 25 22 22 24 24 28 29 29 27 24 15 9 10 15 25 33 43 44 47 47 47 51 68 86 90 94 98 98 92 93 83
69 64 54 35 18 15 15 19 18 20 23 22 21 24 26 26 31 31 30 28 25 19 11 8 16 25 31 38 44 44 42 43 55 71 78 86 95 99 100 99 98 96 94
59 44 22 15 15 19 19 19 22 23 21 21 24 28 30 32 32 32 30 26 19 11 8 13 21 28 33 39 44 44 51 76 79 80 83 88 91 96 97 98 99 100 95
25 16 16 21 22 19 20 23 21 19 21 22 22 28 32 33 33 31 26 19 11 8 13 21 26 30 36 41 44 60 84 84 86 89 87 88 88 92 90 88 99 98 99
18 23 24 22 21 22 22 20 21 21 20 22 25 28 31 33 32 27 20 12 8 14 22 26 32 35 39 44 68 86 88 91 90 89 88 89 91 90 81 71 93 97 99
26 25 23 23 22 20 19 19 20 22 23 27 28 30 33 33 29 21 13 8 12 21 26 31 36 40 49 77 88 92 94 94 93 92 91 92 93 80 78 91 89 93 90
26 24 23 22 19 20 20 21 23 27 28 29 34 35 34 29 21 13 9 12 20 28 29 34 38 46 78 83 88 94 96 95 93 96 94 94 89 91 92 94 95 94 97
24 23 20 18 20 20 23 26 31 31 34 38 37 34 28 20 12 9 11 19 29 31 32 38 48 80 83 85 88 91 96 93 96 97 99 99 91 91 90 93 99 98 95
20 17 19 20 20 21 21 24 28 36 39 36 33 27 18 9 10 12 17 26 32 33 39 46 79 85 84 88 92 93 93 96 96 100 100 98 94 97 96 94 96 95 97
18 19 19 19 19 20 26 32 35 33 32 30 24 14 7 10 13 19 26 30 32 41 43 71 84 85 86 93 96 96 96 98 100 100 100 100 98 95 93 95 95 92 94
18 17 17 17 21 27 33 35 34 34 29 21 8 5 9 12 20 28 31 32 34 40 55 87 89 88 94 97 98 99 99 97 98 100 100 100 100 94 95 97 94 96 97
14 14 16 22 29 34 34 34 32 28 16 3 4 8 10 12 20 29 30 33 41 44 83 90 93 97 98 99 99 99 99 98 98 100 100 100 100 99 96 96 95 90 94
13 18 23 30 34 35 34 32 26 9 1 2 6 10 14 19 26 31 31 38 42 66 88 93 96 97 97 96 96 99 98 97 98 99 100 100 99 97 98 97 93 94 95
18 24 32 36 34 33 32 22 4 0 3 4 7 13 19 25 33 32 33 41 49 81 89 93 96 96 95 96 95 97 98 99 100 100 100 100 100 99 98 95 96 98 96
28 35 35 33 33 30 19 1 0 5 6 7 12 17 22 28 33 31 35 42 64 90 95 94 95 98 99 100 100 99 98 99 100 100 100 100 100 97 96 98 98 97 96
34 33 33 34 28 15 0 1 9 10 9 14 19 23 26 30 34 30 38 47 81 96 94 95 97 98 100 100 100 100 100 100 100 96 92 91 100 100 99 99 98 99 96
32 34 33 27 13 0 2 11 14 14 16 21 25 28 30 34 33 31 38 59 93 96 97 98 98 100 99 100 100 100 100 99 98 99 99 89 94 100 100 99 98 99 97
33 32 27 11 1 6 14 16 19 22 26 32 37 36 34 33 30 33 43 80 97 98 98 98 98 98 100 100 100 99 96 96 96 100 98 90 94 99 100 99 99 99 97

GFSGL_700_rhum_006.txt.gz
RH
38 41 46 48 51 54 58 63 68 70 69 68 70 70 65 51 11 18 20 21 23 21 23 23 21 18 17 19 19 19 19 19 18 12 10 6 4 5 7 10 14 30 44
42 46 48 51 54 59 64 70 73 74 72 70 73 68 62 13 17 20 22 24 22 23 24 21 19 18 19 20 20 20 20 15 8 6 4 7 12 16 18 24 34 46 62
44 49 52 56 60 66 71 77 79 76 72 72 70 61 18 18 20 22 24 22 25 26 23 20 19 20 20 20 21 19 12 7 7 15 16 19 22 27 35 41 52 49 47
48 53 57 63 68 72 78 82 79 76 73 70 61 21 18 20 22 24 22 26 27 25 21 21 22 22 21 21 18 11 8 11 19 24 30 38 41 44 55 54 45 44 42
52 57 62 68 74 79 81 79 76 74 70 61 21 18 19 22 23 23 25 25 24 19 22 22 22 21 22 17 10 8 14 20 27 43 56 51 49 47 48 46 48 62 63
57 61 67 75 78 79 77 75 75 70 57 22 17 19 22 23 24 26 26 22 20 22 21 22 22 23 18 10 8 16 25 32 42 50 41 39 44 47 57 68 73 74 60
63 69 75 76 74 73 74 75 68 47 22 17 19 22 22 24 24 24 22 20 21 22 25 25 24 18 10 8 15 20 25 38 51 46 41 46 62 72 75 79 80 78 73
73 76 77 77 75 75 74 62 37 20 17 20 21 22 24 22 23 21 18 20 23 26 27 26 20 11 9 16 18 22 31 35 37 38 64 74 76 82 92 94 90 86 78
85 80 77 75 75 67 50 31 16 17 20 20 23 22 20 22 19 18 21 23 26 28 27 20 11 8 17 22 26 28 30 32 45 71 77 79 80 86 96 99 97 87 69
78 75 73 68 56 39 19 16 20 21 21 23 21 21 20 17 20 24 26 26 28 28 22 12 8 18 22 26 30 31 32 53 64 65 74 82 89 93 98 98 90 69 80
73 67 59 46 24 16 18 22 22 22 21 18 20 20 21 23 25 27 28 30 28 21 12 8 14 22 26 28 34 41 64 70 73 78 80 85 86 87 88 86 82 86 92
63 52 29 18 18 23 23 23 22 18 18 19 17 20 25 28 29 29 29 26 19 10 8 10 21 24 28 34 49 73 75 76 78 83 84 86 82 84 77 77 94 98 99
30 20 21 24 25 25 23 20 17 18 17 15 17 22 25 27 28 26 23 15 7 8 11 20 26 27 33 53 78 81 84 85 85 85 85 85 88 87 94 89 93 96 97
24 25 26 26 24 22 17 17 18 15 15 18 22 23 25 25 24 19 9 5 8 10 16 24 28 34 61 82 84 91 93 92 92 92 91 89 91 91 96 94 89 90 85
27 27 24 23 19 17 17 16 15 17 19 22 25 26 25 22 13 5 6 9 12 18 24 27 31 52 78 84 89 94 94 94 94 96 93 89 88 91 94 96 97 96 95
24 23 19 17 17 16 16 18 19 23 28 31 30 27 20 7 4 6 9 12 20 26 27 31 42 77 84 84 88 91 96 94 95 95 94 94 89 90 90 95 99 98 94
19 17 17 17 16 14 15 17 20 30 32 31 27 16 2 2 6 8 10 19 26 27 32 38 72 84 85 93 94 93 91 95 97 97 98 97 92 92 94 93 94 90 92
17 17 15 14 13 15 16 22 27 27 26 25 10 1 2 5 8 10 15 24 26 34 40 64 83 87 93 93 94 94 96 96 95 95 98 100 100 93 94 95 96 91 88
15 14 12 13 14 18 25 29 30 30 25 8 0 4 5 6 11 17 22 28 27 36 52 84 89 94 94 94 97 99 100 96 94 98 100 100 100 96 95 97 96 96 94
12 12 13 15 21 28 30 31 31 24 7 0 6 8 6 8 13 17 26 27 31 39 78 89 95 95 96 98 100 100 100 100 100 100 100 100 99 99 97 95 95 90 92
12 13 17 24 28 30 32 31 23 6 0 6 10 9 10 14 18 22 28 28 34 59 86 93 95 96 95 97 97 100 100 100 100 99 99 100 99 97 99 98 97 94 95
14 20 24 27 31 32 30 23 7 0 6 12 13 13 16 20 22 25 29 30 40 78 90 91 96 96 95 94 93 97 100 100 99 96 98 100 99 97 97 96 96 97 98
19 22 28 31 31 30 23 6 2 8 14 16 17 17 21 25 25 28 27 32 61 90 94 92 94 97 99 98 100 100 97 96 97 97 98 92 94 93 93 94 98 97 97
23 27 28 30 30 22 7 4 11 16 19 22 25 28 32 33 29 28 26 41 82 94 91 93 96 96 97 100 100 99 100 98 98 94 90 89 97 98 97 97 98 97 96
25 28 30 31 20 7 8 15 20 23 26 31 35 37 36 33 29 24 30 65 91 94 97 96 95 97 97 98 98 98 100 99 98 98 96 96 97 97 96 95 97 97 97
27 32 30 15 7 12 19 22 24 28 33 35 37 36 33 28 23 24 48 85 95 95 96 97 98 98 98 99 99 99 98 99 98 94 90 92 96 96 97 97 98 96 97

GFSGL_700_rhum_009.txt.gz
RH
42 41 38 42 49 52 53 53 56 61 66 71 73 74 72 72 69 40 18 18 21 23 20 20 20 17 15 15 16 18 17 17 13 7 9 6 5 9 15 23 31 34 29
45 40 42 47 50 52 53 56 62 67 72 76 78 79 74 74 52 20 18 21 22 20 21 18 17 16 16 17 19 19 19 18 15 10 6 5 9 18 22 22 25 27 31
44 42 47 51 52 53 57 64 68 73 76 80 81 79 77 61 23 18 20 22 20 21 18 17 14 15 17 20 21 21 19 15 8 6 8 12 20 19 19 24 28 36 52
44 46 52 55 56 58 63 68 73 76 80 82 80 79 65 25 19 20 22 21 21 18 18 16 16 18 21 23 22 20 14 8 10 17 20 21 23 26 28 35 45 52 58
46 50 55 58 60 63 68 73 76 79 81 81 81 66 27 19 21 22 22 20 17 16 16 17 18 22 24 24 20 13 8 12 18 23 29 29 27 31 52 54 56 59 59
51 56 59 61 63 68 72 74 76 78 82 82 59 27 19 22 21 22 19 17 16 15 17 19 22 24 24 21 13 9 15 23 25 30 30 31 45 66 62 63 65 67 53
56 59 62 65 69 70 72 74 81 81 80 45 25 19 22 22 22 18 17 15 16 18 20 22 23 22 20 13 8 12 18 23 36 36 35 61 69 72 73 68 68 69 59
63 66 70 71 72 74 81 80 80 66 36 19 20 23 23 21 18 16 15 16 19 22 22 23 21 17 10 7 9 17 19 27 32 44 70 73 78 79 85 82 76 75 62
71 73 74 78 84 82 78 72 45 26 18 23 24 24 19 18 16 16 16 20 21 20 20 18 12 6 7 12 19 19 22 34 54 70 80 83 82 85 90 85 86 74 45
84 89 88 82 76 72 53 36 18 21 24 25 22 18 17 15 15 18 21 19 18 15 9 5 6 8 12 21 21 25 36 61 65 66 72 79 84 88 94 94 89 79 87
84 80 76 71 58 42 21 20 25 25 23 19 18 18 16 16 21 21 19 16 9 2 3 5 8 13 21 22 27 48 68 68 71 73 74 79 83 84 88 94 100 99 94
77 69 61 46 24 20 25 26 24 21 18 18 16 16 20 23 20 17 13 4 2 3 6 8 13 19 22 27 55 73 74 76 77 78 82 83 79 83 90 92 97 100 100
64 48 23 20 26 27 25 22 18 18 17 14 14 18 20 18 16 10 2 2 5 6 7 14 21 22 27 55 76 79 81 83 84 85 85 83 83 86 89 88 93 96 99
24 22 26 27 26 23 19 18 19 15 14 15 18 19 16 14 9 1 3 6 6 7 10 19 23 29 53 79 82 86 92 90 88 86 85 87 87 87 89 90 85 86 85
27 27 25 23 20 18 19 17 14 14 15 18 19 16 15 10 2 4 6 6 7 10 17 22 28 47 76 82 91 97 94 93 91 94 90 85 87 87 90 91 89 87 90
25 23 20 18 19 17 15 14 15 17 24 23 20 18 11 1 5 7 6 7 9 14 21 27 41 76 81 88 89 90 96 92 94 91 90 93 91 91 91 95 96 94 90
20 18 19 18 15 14 14 15 20 27 24 22 20 13 1 4 8 7 8 10 13 20 25 34 72 79 88 91 92 94 93 95 95 94 97 98 95 93 98 96 94 92 90
19 18 15 14 14 15 16 19 18 17 18 20 13 2 4 10 10 9 10 12 19 25 33 66 80 89 91 91 94 92 92 94 95 96 96 100 99 97 95 98 99 95 90
16 15 14 14 15 16 18 17 18 21 22 15 2 4 10 12 13 12 14 15 22 28 52 82 87 90 90 91 95 95 95 96 98 99 99 99 100 99 98 100 99 99 97
14 14 15 15 16 17 17 19 22 24 15 3 5 9 12 15 14 16 17 19 25 34 75 88 90 90 90 91 93 95 98 99 98 98 99 100 100 100 100 99 99 97 94
16 14 15 15 16 17 19 23 25 14 5 7 12 16 17 19 19 22 20 24 27 57 85 88 89 91 92 92 93 95 98 99 100 98 100 100 100 100 100 100 100 98 92
15 15 15 16 17 19 24 24 11 7 11 15 17 20 23 27 30 29 24 25 38 78 86 86 90 91 91 91 91 91 94 93 95 96 100 99 98 99 99 100 98 95 94
15 14 15 16 20 24 20 9 9 15 17 18 19 24 28 30 31 27 24 28 64 89 89 89 92 96 97 96 95 93 90 90 95 100 97 96 94 96 98 98 98 98 96
14 14 16 21 23 14 8 12 16 16 18 25 29 29 28 29 29 24 23 49 85 89 90 94 96 95 96 96 95 93 91 93 94 91 88 93 97 98 99 99 99 99 99
13 16 21 18 9 9 14 15 14 22 29 31 31 28 25 28 26 21 36 77 87 92 97 98 96 96 94 94 95 95 96 99 100 89 91 98 98 98 100 100 97 99 100
16 19 13 8 10 13 12 13 22 28 29 34 35 30 25 25 21 28 68 86 87 91 90 91 93 90 85 86 89 92 92 94 88 82 95 99 98 97 96 94 97 98 99

GFSGL_700_rhum_012.txt.gz
RH
58 52 53 92 42 41 44 51 55 58 60 63 67 72 76 78 77 75 72 58 26 18 24 22 20 17 13 12 11 11 12 12 8 7 10 10 8 6 7 12 22 19 15
58 50 60 45 42 42 50 55 59 60 62 67 72 76 80 82 79 78 69 36 18 23 22 20 16 13 12 12 12 13 13 14 13 9 10 8 6 9 13 22 20 19 30
58 52 50 44 42 50 55 59 60 63 68 73 77 80 84 84 82 73 44 19 23 22 21 16 13 12 12 13 14 14 15 15 14 10 5 6 8 12 21 22 22 42 49
60 54 50 45 50 54 58 60 63 70 75 79 85 85 86 85 76 46 21 23 23 21 16 14 13 13 15 14 15 16 16 13 8 6 8 12 14 20 25 30 50 53 53
62 56 49 46 54 57 60 63 69 75 81 94 87 88 86 74 42 20 24 23 19 15 15 13 14 16 14 15 16 14 10 6 7 15 20 19 20 27 40 58 57 58 52
75 58 52 71 58 62 64 69 74 82 97 90 91 87 63 36 19 25 23 18 16 14 13 16 14 13 13 10 6 5 6 9 17 23 23 27 34 56 65 63 68 61 47
68 69 86 62 62 66 70 74 83 95 97 94 84 47 27 21 25 22 17 16 13 14 15 13 13 8 3 3 4 5 8 16 24 26 29 50 68 72 78 70 69 71 64
78 65 62 64 68 73 78 85 96 98 93 68 35 21 25 25 21 16 14 13 14 14 13 10 2 2 4 5 5 8 16 22 27 42 68 75 80 83 88 83 78 70 63
64 66 68 73 79 84 92 98 97 80 43 24 22 26 24 18 16 13 13 14 12 12 5 2 4 5 5 6 10 16 19 26 53 71 76 85 86 89 92 85 82 85 74
72 76 79 86 96 98 94 80 50 33 20 26 26 22 17 15 13 13 15 12 11 3 3 5 5 5 7 14 20 21 24 57 67 70 76 85 88 87 91 98 97 92 90
85 97 100 96 90 78 58 42 21 25 27 24 19 17 14 14 15 15 13 11 3 3 6 5 6 7 14 20 23 34 63 68 72 76 79 83 84 87 90 100 100 100 90
98 95 87 74 57 41 22 25 27 25 21 18 16 14 14 16 16 14 11 3 4 6 6 6 7 13 19 23 40 70 71 72 76 78 82 85 83 86 90 98 99 98 97
85 68 56 37 22 25 28 26 22 18 18 15 14 14 17 16 15 12 4 4 6 6 6 7 12 19 24 45 71 73 76 80 81 81 82 86 84 83 88 88 89 91 90
56 36 22 26 28 26 23 19 18 16 15 14 15 16 15 16 13 6 3 6 8 8 8 9 18 25 46 73 78 84 86 85 84 84 84 82 83 85 89 96 88 89 88
24 26 28 26 23 19 18 18 15 15 15 16 16 16 17 15 8 4 5 9 10 10 10 16 22 39 71 76 84 86 87 86 87 89 87 84 86 87 90 98 94 89 91
28 25 22 19 19 19 16 16 15 15 16 17 18 18 17 10 4 5 10 12 11 12 14 21 29 69 76 81 81 84 89 88 90 90 92 94 94 95 94 94 96 93 90
22 20 19 20 18 16 16 15 16 18 18 20 20 18 10 5 6 10 13 14 14 15 19 25 58 76 81 83 84 86 87 89 88 91 96 99 96 94 97 95 94 93 89
20 21 19 18 18 16 15 16 16 16 16 20 17 9 6 8 12 14 15 16 17 17 24 41 75 83 84 85 88 89 89 90 93 97 99 98 100 100 98 98 97 95 92
21 19 19 18 16 16 15 15 14 16 18 14 7 7 11 15 16 17 18 21 18 21 30 71 84 84 86 86 89 92 92 93 96 97 98 99 100 99 97 100 98 97 100
20 21 18 17 16 15 13 13 16 16 10 7 9 11 12 13 17 20 24 25 20 25 61 84 86 87 88 88 90 90 94 97 97 99 98 98 99 99 98 97 99 98 97
21 18 18 16 14 12 13 15 13 7 8 11 12 13 15 18 21 23 27 23 22 43 81 87 88 89 89 89 88 90 93 96 100 100 99 99 97 97 99 99 99 100 100
20 18 16 13 11 14 13 9 7 9 10 11 15 21 22 24 24 26 28 23 32 72 84 88 90 90 90 89 87 89 93 96 98 98 98 97 97 97 95 97 99 98 99
19 15 12 12 14 12 8 8 9 10 11 18 20 22 24 25 24 28 24 26 65 82 86 89 91 94 94 91 92 93 93 95 94 95 98 98 94 93 96 97 98 98 98
14 11 12 13 10 8 8 9 9 11 18 19 23 29 26 24 25 25 23 60 78 83 90 92 91 89 88 89 92 95 97 94 94 95 97 95 97 100 100 99 99 100 98
11 12 12 9 8 8 8 9 11 18 18 20 31 28 23 22 24 21 54 76 80 86 86 83 73 69 73 78 85 90 92 91 94 100 100 99 98 96 97 98 100 98 97
12 11 9 8 8 8 9 11 18 19 18 27 32 26 21 22 20 48 73 78 82 78 69 60 58 61 69 79 79 77 80 85 84 83 85 88 88 87 88 90 91 90 94

GFSGL_700_rhum_015.txt.gz
RH
61 53 56 57 84 71 99 60 48 49 56 60 63 63 65 68 73 78 79 79 77 71 58 23 24 24 20 14 12 11 12 12 9 6 7 7 7 6 4 4 8 11 12
60 56 58 57 88 77 81 50 48 52 58 62 64 64 68 71 80 85 84 83 80 56 25 24 24 19 14 12 12 12 11 8 7 5 3 3 4 4 6 11 14 15 16
59 59 63 61 71 98 80 49 50 55 61 64 64 67 73 81 90 88 88 85 48 25 24 24 18 14 12 12 12 9 8 6 3 2 3 3 4 9 12 15 18 21 43
64 65 62 77 99 91 50 50 56 60 63 64 67 72 80 92 91 92 86 43 23 25 23 17 14 12 13 11 8 7 3 2 3 3 4 5 11 14 20 26 31 52 50
71 72 72 98 90 99 69 70 62 63 64 68 73 79 90 96 96 83 36 22 26 22 16 14 13 13 10 8 4 3 4 4 4 5 8 12 14 17 35 53 58 57 55
79 90 100 99 99 66 68 67 78 71 71 75 80 87 96 96 70 28 24 26 20 15 13 14 13 9 7 3 4 5 5 5 6 13 15 16 19 49 62 64 65 67 58
94 99 100 93 71 69 86 93 82 78 79 82 89 98 97 53 24 26 25 18 15 13 14 12 9 5 3 5 5 5 5 8 15 19 18 36 62 69 74 72 70 73 66
100 100 100 94 83 96 87 86 84 87 86 94 98 90 35 24 27 22 17 15 14 14 11 9 5 4 5 5 5 5 6 14 18 26 56 68 75 78 82 83 80 75 61
100 99 94 96 83 81 83 88 91 96 99 97 55 25 26 26 19 16 14 14 13 11 10 5 4 6 6 5 5 8 14 17 37 66 70 77 81 86 92 90 82 79 64
93 86 78 81 86 91 93 99 100 96 66 33 25 28 22 18 16 15 14 13 11 10 6 4 6 6 6 6 10 16 18 47 63 67 72 78 82 84 87 91 92 89 83
80 86 90 93 100 100 98 92 66 41 25 28 25 19 17 16 15 14 13 12 11 7 4 6 8 7 6 10 18 27 58 63 67 72 74 76 78 83 86 89 100 100 96
85 96 100 99 92 83 65 42 25 27 26 20 18 17 16 15 14 13 12 12 8 5 5 8 8 8 9 18 29 62 68 71 71 72 76 82 83 82 83 90 95 99 100
99 96 91 79 62 38 25 28 26 21 19 18 16 16 15 15 13 12 13 9 5 5 8 10 10 10 16 26 63 68 74 76 78 79 80 81 83 84 86 91 86 89 90
88 70 59 33 26 28 26 21 19 19 17 17 16 15 14 12 13 13 9 6 6 8 11 11 11 13 22 60 70 76 80 85 85 83 85 86 85 89 92 96 92 93 86
55 33 27 28 25 21 19 20 18 18 17 16 15 13 11 13 12 7 6 6 9 11 13 13 12 19 51 70 75 80 85 86 85 86 87 89 91 91 92 97 97 91 91
28 28 25 21 20 21 19 19 18 17 16 15 12 11 13 10 6 6 7 10 12 14 15 14 17 35 71 77 79 84 89 87 88 89 92 94 91 91 90 89 95 95 92
24 22 20 22 20 20 20 18 18 16 14 10 11 12 7 6 7 9 10 12 16 18 20 18 26 67 76 81 83 84 85 90 91 94 95 97 93 91 95 93 95 97 94
21 22 22 21 21 21 18 18 15 11 10 12 9 6 7 9 10 10 12 15 21 24 21 23 60 78 81 84 85 86 89 92 94 97 98 97 98 97 94 97 98 98 96
24 23 22 22 20 20 17 13 11 10 10 7 6 7 8 10 13 16 18 21 24 24 22 51 78 82 84 86 88 91 93 94 98 100 100 97 97 99 97 99 99 100 100
23 24 23 21 20 16 12 10 10 8 7 6 7 8 10 14 17 20 22 23 26 22 45 79 84 85 87 88 90 92 93 98 100 100 98 96 97 98 97 97 99 98 98
25 23 23 20 15 11 10 9 8 7 7 7 9 13 14 15 19 20 22 26 22 40 78 86 87 88 89 90 90 92 97 100 100 98 97 97 98 96 98 99 97 97 96
24 24 19 14 12 10 9 8 7 7 7 9 13 14 17 20 19 20 24 23 37 73 83 87 90 88 87 88 90 92 95 96 98 98 97 97 97 99 96 94 93 95 98
24 18 14 12 10 9 8 7 7 8 9 13 14 14 20 14 15 21 22 34 71 81 84 86 86 84 81 81 87 92 91 90 91 97 98 98 96 90 89 96 99 98 97
18 14 12 10 9 8 8 7 8 9 12 14 14 20 20 14 18 20 33 68 77 77 76 70 63 63 70 80 87 90 87 89 94 93 91 86 90 93 94 98 97 96 96
15 13 10 9 8 8 8 8 9 12 14 15 16 23 18 17 18 30 65 74 72 67 58 56 59 66 74 80 80 83 86 86 91 89 86 90 90 88 86 91 92 92 92
14 11 9 8 8 8 8 10 13 16 16 18 22 24 18 17 23 58 71 71 63 56 56 62 66 68 73 76 79 78 80 80 76 80 80 81 82 83 84 86 89 88 86

GFSGL_700_rhum_021.txt.gz
RH
60 61 79 80 76 62 68 66 75 81 88 93 100 96 100 93 100 66 69 72 71 70 74 75 77 79 78 52 28 24 16 17 19 17 12 9 8 6 5 4 3 3 3
76 68 68 80 69 64 70 79 79 77 99 100 100 100 91 99 77 69 75 74 71 78 81 78 83 83 48 28 22 16 18 16 14 12 9 7 6 5 4 3 4 5 7
64 83 80 74 64 72 78 80 75 95 100 100 100 99 100 98 76 72 74 73 81 82 82 86 89 49 27 20 16 17 15 12 9 8 6 6 5 4 4 4 6 8 20
71 82 80 76 74 78 83 79 97 99 99 96 100 100 100 99 74 75 74 86 95 90 92 93 41 27 18 17 17 14 11 9 7 6 5 5 4 4 6 8 14 40 42
82 94 98 80 86 88 97 98 92 98 100 100 100 100 100 85 75 76 93 98 93 97 96 30 24 17 17 16 13 10 8 7 6 5 5 5 5 7 16 39 44 46 43
99 100 72 86 96 99 88 100 100 99 99 100 99 100 93 74 84 98 96 94 98 81 27 19 18 17 15 12 10 8 7 6 5 6 6 6 10 33 50 50 48 45 36
100 95 88 95 97 100 82 100 100 100 100 99 99 93 95 98 98 93 100 96 32 25 18 18 17 14 12 9 8 6 5 5 7 8 7 16 44 56 54 52 54 54 54
92 96 99 99 100 99 100 100 99 96 98 96 97 100 96 89 97 98 51 27 19 19 19 16 14 10 8 6 4 4 5 7 9 10 22 51 59 61 62 62 62 59 57
100 100 100 100 100 100 99 99 99 94 97 94 94 96 100 100 48 28 21 20 20 18 15 11 9 7 5 4 5 6 8 10 11 29 60 64 68 70 73 67 69 62 58
100 100 98 99 99 99 99 98 90 85 91 99 99 94 34 28 22 20 21 19 17 13 10 8 6 4 4 6 8 9 10 10 25 57 63 68 71 73 77 81 80 77 76
98 99 99 99 99 96 96 94 97 100 98 73 33 27 22 20 21 20 18 15 10 8 6 4 4 6 7 8 10 11 11 24 55 57 62 68 67 73 80 90 93 92 85
96 97 96 99 97 99 100 100 83 49 29 27 22 21 22 21 19 17 11 9 7 5 4 5 6 8 8 10 12 12 27 58 59 63 68 70 69 77 82 86 88 90 93
100 100 100 100 96 75 51 32 28 27 21 21 22 22 20 18 13 10 8 6 4 4 5 7 8 9 12 14 13 29 62 63 65 68 71 73 77 80 83 82 88 91 90
98 83 66 52 33 28 28 24 21 22 23 23 21 20 15 11 8 7 5 4 4 6 7 9 11 12 14 13 29 63 66 69 70 71 75 80 83 85 86 86 82 84 79
59 39 28 29 27 22 22 23 23 24 22 21 17 12 10 8 7 5 4 5 6 7 8 10 13 15 15 30 65 69 71 74 75 78 80 82 85 84 85 91 91 86 84
28 29 27 22 22 24 24 25 24 22 19 14 11 9 8 7 5 4 5 7 7 8 9 11 14 14 34 62 65 68 74 74 77 79 83 87 87 88 86 90 93 94 90
27 23 22 25 25 26 26 24 22 17 14 11 8 8 7 5 4 5 6 7 8 8 10 15 15 40 65 67 68 71 74 77 77 82 87 92 94 89 90 91 93 94 93
23 26 27 27 27 25 24 20 16 14 11 9 8 8 6 5 6 7 7 8 6 10 15 16 46 67 69 72 74 74 76 76 82 87 92 95 97 95 93 95 98 98 95
28 29 28 27 26 24 20 16 15 12 9 9 8 7 6 6 8 8 8 6 10 16 20 55 69 72 73 72 72 74 75 78 82 86 93 93 92 92 92 95 97 100 98
30 29 27 27 24 20 17 15 12 10 9 8 8 7 7 8 10 10 8 10 16 28 63 71 73 71 69 66 70 75 79 77 80 79 79 82 87 90 88 92 94 93 97
30 28 28 25 21 18 16 13 11 10 9 8 8 8 9 12 12 12 9 16 34 62 70 72 69 62 61 68 73 74 72 72 73 74 75 80 83 83 87 92 93 92 88
30 30 27 22 19 17 14 12 11 9 8 8 9 11 15 15 14 13 15 30 60 66 69 63 56 59 65 68 69 68 68 69 71 74 80 82 82 83 86 86 83 86 90
32 30 25 21 18 14 12 11 9 8 9 12 14 17 19 18 18 15 21 57 65 62 56 55 61 64 66 67 66 65 67 71 74 77 82 78 74 70 81 92 93 90 84
34 29 22 19 15 13 10 8 8 10 14 18 22 24 21 20 18 17 47 64 59 51 53 62 70 72 68 68 68 70 71 73 77 80 79 80 84 86 90 94 87 81 84
32 24 19 16 13 9 7 7 10 14 18 20 23 25 22 20 17 33 62 60 50 50 60 70 76 79 75 69 68 71 74 76 80 81 77 77 80 80 83 85 81 81 72
26 20 16 13 8 6 6 8 10 13 17 19 23 23 20 15 25 58 59 52 51 63 80 86 86 86 82 70 69 70 73 74 70 71 70 66 62 61 62 63 64 70 74

GFSGL_700_rhum_024.txt.gz
RH
35 30 34 44 58 66 84 86 83 79 72 83 82 89 97 95 94 85 100 98 98 72 73 76 73 78 84 80 79 83 57 28 20 19 21 18 15 11 8 7 6 4 3
38 35 31 41 58 76 84 90 85 76 75 81 85 90 96 93 100 100 99 100 99 73 76 76 77 87 96 85 87 53 27 18 20 21 17 14 9 7 6 5 4 4 4
28 39 40 50 67 71 89 99 82 72 76 84 94 97 90 98 100 100 100 100 81 75 77 76 90 97 91 92 54 25 18 20 18 15 12 8 7 5 4 4 4 4 5
30 49 61 76 79 69 83 96 71 90 90 99 91 100 100 100 100 100 100 99 79 78 75 92 96 94 94 34 21 19 20 16 13 9 7 5 4 4 5 5 4 8 27
42 69 68 77 83 82 96 79 91 96 100 95 100 100 100 100 100 99 100 90 76 85 97 97 95 80 26 19 20 19 15 10 8 6 4 4 4 6 6 5 16 34 38
59 66 92 97 100 93 95 100 82 99 100 100 100 100 100 100 100 98 95 78 97 99 97 98 39 22 19 20 17 12 9 7 4 4 5 6 7 7 7 30 40 38 33
77 80 98 98 94 100 99 99 100 100 100 100 99 99 99 100 99 97 98 99 96 99 60 25 20 20 18 15 9 8 5 4 5 7 7 8 7 15 43 45 43 46 43
94 99 99 99 98 96 100 100 98 100 100 98 99 98 98 98 99 97 98 99 58 27 20 21 20 16 11 8 5 4 4 6 7 7 8 8 21 48 48 47 52 47 46
98 99 100 100 100 100 100 100 99 99 99 97 98 100 97 95 99 99 45 27 21 21 21 18 12 9 6 4 4 4 6 7 8 10 11 39 58 59 65 60 58 57 56
100 99 100 100 99 99 99 98 98 98 99 98 97 96 97 72 29 26 21 21 21 19 14 9 6 4 4 4 5 6 6 8 9 13 53 62 64 67 68 68 74 75 74
99 99 99 100 100 98 99 98 99 96 97 98 79 36 29 24 21 23 23 20 15 9 7 5 4 4 5 6 7 7 9 9 15 48 53 60 63 65 69 81 91 89 82
99 99 98 98 98 97 98 96 91 73 45 30 27 22 22 23 23 20 15 10 7 6 4 4 4 5 6 7 8 10 11 20 51 52 56 61 64 72 80 86 89 92 91
99 99 99 100 95 77 55 36 29 27 23 22 24 24 23 20 15 11 8 7 6 4 4 5 6 6 7 9 12 12 29 53 51 53 57 64 68 72 78 83 85 89 84
85 69 54 37 29 29 27 23 22 24 24 24 22 20 16 12 9 8 8 6 4 4 5 6 6 6 8 11 13 36 54 52 51 54 60 65 72 78 84 87 82 84 78
38 29 29 27 23 22 24 24 24 24 22 21 17 14 12 10 9 8 6 5 5 5 6 6 5 8 13 15 45 61 60 58 61 64 67 72 76 79 84 90 91 89 86
29 24 23 24 26 26 26 26 24 23 19 16 14 12 10 9 8 7 6 5 6 7 6 4 8 13 17 55 60 64 63 62 64 69 74 74 76 82 82 87 90 90 89
23 24 26 26 26 26 25 25 22 18 16 15 12 10 10 9 8 7 6 7 8 7 5 9 14 30 60 60 61 61 63 65 67 69 70 73 76 80 84 84 87 91 87
27 28 27 28 28 27 26 21 18 17 15 12 11 10 9 9 8 7 8 9 9 6 11 16 50 60 62 63 63 64 68 69 69 70 71 73 76 80 80 84 90 90 84
32 31 30 28 28 26 22 19 18 16 13 12 11 10 8 8 8 9 10 11 10 13 20 57 64 64 63 61 63 70 66 64 65 68 74 78 81 85 86 89 85 88 89
32 31 29 29 27 23 20 19 16 14 12 11 9 8 9 10 12 14 14 13 12 22 60 66 64 59 55 61 68 67 66 65 70 75 78 78 82 88 84 81 82 80 83
32 31 31 30 26 22 20 17 15 12 9 7 8 11 14 16 17 16 16 13 20 58 65 62 55 53 60 64 69 66 64 65 71 76 78 81 79 77 86 86 81 72 70
33 33 33 29 24 21 17 14 10 7 7 9 12 14 17 18 18 16 14 18 52 62 60 54 56 62 65 66 68 64 63 68 70 75 80 82 82 79 74 72 69 77 79
36 36 33 26 21 18 14 8 5 5 7 9 11 14 16 18 17 15 15 44 58 56 52 58 69 73 73 69 64 63 66 69 70 66 63 65 60 57 61 61 62 64 69
40 37 29 23 18 13 7 5 4 5 7 7 9 12 16 17 14 14 38 54 52 48 52 62 71 80 84 72 66 65 67 68 62 62 63 61 60 59 56 55 60 66 67
41 33 25 19 14 7 5 4 4 6 6 6 10 13 14 11 13 35 49 48 43 44 58 75 82 87 90 81 69 66 68 64 65 74 81 80 64 54 53 60 67 67 69
38 28 22 15 8 5 4 4 5 6 6 8 10 10 9 12 33 45 46 42 44 60 76 81 83 85 88 87 72 67 69 64 76 82 86 84 74 55 57 70 61 42 46

GFSGL_700_rhum_027.txt.gz
RH
48 42 36 30 28 26 31 37 60 70 76 85 88 86 91 83 86 89 91 99 99 100 100 98 96 85 83 80 77 75 78 83 79 72 28 20 22 21 16 12 9 7 5
56 50 43 35 39 40 39 41 44 65 72 81 97 91 86 84 96 99 100 99 100 99 100 99 96 96 90 78 76 85 91 88 71 23 21 23 20 14 9 7 5 3 3
62 55 47 35 37 48 51 53 57 67 84 100 97 90 91 100 100 100 100 100 100 100 100 94 97 89 82 84 90 92 89 44 21 22 22 17 12 8 5 3 3 4 4
58 55 51 46 36 50 61 67 69 79 97 99 98 94 98 96 99 100 100 100 100 98 99 96 96 84 90 99 95 77 25 21 22 18 13 9 6 4 3 4 4 5 5
60 49 42 39 39 58 69 77 79 91 95 100 88 100 88 100 100 100 99 100 100 98 98 96 96 98 100 94 34 21 22 20 15 9 7 4 3 4 5 6 6 5 22
57 46 36 36 47 68 73 90 99 97 88 99 96 100 98 100 100 100 99 99 99 98 96 96 98 98 47 22 22 22 16 10 8 5 3 4 5 6 6 6 10 30 25
50 46 46 42 52 74 91 93 100 100 97 89 100 96 100 100 99 99 99 98 97 97 99 97 59 24 21 22 18 12 8 6 4 4 5 6 6 7 7 21 34 32 36
65 63 59 77 80 93 98 100 100 96 99 98 100 100 99 98 98 98 97 96 97 97 55 25 21 22 19 13 9 6 4 4 5 6 6 7 8 12 33 31 34 36 38
94 96 90 98 95 99 99 99 100 99 98 100 99 98 98 99 99 96 97 90 38 25 22 23 20 14 9 7 5 4 4 6 6 7 8 8 25 40 44 43 49 50 52
95 98 98 98 99 98 99 100 100 99 99 98 98 99 98 96 91 64 29 23 22 23 20 15 10 8 6 4 4 5 5 5 6 8 12 42 46 49 55 60 64 64 70
100 98 100 99 99 99 99 99 98 98 99 97 95 83 55 32 24 23 24 23 20 15 10 8 7 5 4 5 5 5 5 5 8 14 38 43 50 54 61 70 75 77 80
98 97 97 98 98 98 98 97 94 85 62 36 28 24 23 25 25 23 20 16 12 10 8 7 5 5 5 5 5 4 5 8 19 39 40 47 50 59 66 74 79 84 84
100 100 100 96 80 60 43 32 29 26 23 24 26 26 25 22 20 16 13 10 9 9 8 6 5 5 5 5 4 7 10 28 40 41 45 52 58 64 72 75 78 80 75
59 47 35 29 29 26 23 24 27 28 28 27 24 22 19 16 14 11 10 9 9 8 7 6 6 6 5 5 10 13 39 42 44 47 51 55 60 63 70 74 70 70 67
29 29 26 23 24 27 29 29 29 27 25 22 19 17 15 12 11 10 10 10 9 8 7 7 7 5 6 12 22 50 51 52 55 59 60 58 61 61 66 71 71 72 74
24 23 26 29 30 30 29 27 25 22 19 18 17 15 14 12 11 11 10 9 8 8 9 9 7 11 14 40 59 63 61 61 63 63 63 61 60 64 66 70 70 75 76
25 29 31 31 31 28 27 24 21 20 20 18 16 15 14 11 10 9 8 9 10 11 11 9 13 26 57 59 61 62 64 65 64 61 60 63 64 68 64 69 73 74 73
32 33 32 30 29 28 26 24 22 22 19 16 14 11 9 8 8 10 12 13 14 12 10 14 41 56 61 62 62 63 66 64 62 61 66 70 68 65 63 67 78 83 78
33 33 31 31 30 28 26 24 22 18 16 12 9 7 7 8 10 13 14 14 13 11 15 47 57 58 58 58 64 66 61 60 60 66 69 72 76 72 72 79 81 85 80
34 33 33 33 32 29 26 23 19 15 10 6 6 6 6 8 10 12 14 13 11 15 50 57 56 52 54 62 65 64 62 61 65 71 73 77 80 81 76 73 66 60 62
36 36 36 36 33 29 24 19 14 8 5 4 4 5 6 7 10 12 12 10 15 45 53 52 49 56 62 65 65 64 62 64 67 70 73 73 65 61 63 60 56 57 64
38 39 40 37 32 26 20 14 8 5 4 4 4 4 5 7 10 11 9 17 40 47 46 48 57 67 73 72 68 65 65 66 66 65 62 65 63 60 56 54 62 74 75
40 42 41 35 29 22 16 8 5 4 4 4 4 4 6 8 9 8 18 36 42 45 48 54 64 72 78 80 74 66 63 65 65 57 63 69 74 72 60 61 82 86 60
41 43 40 32 26 18 10 5 4 3 3 4 4 5 7 8 7 18 33 40 44 44 47 55 70 80 84 85 83 72 64 64 62 64 70 67 68 74 76 71 86 87 53
43 44 39 31 22 12 6 4 3 3 4 4 6 7 7 7 16 31 39 42 40 40 51 69 78 81 82 84 84 81 68 66 64 68 74 74 77 77 78 71 83 77 34
45 46 37 28 16 8 4 3 3 4 4 6 7 6 7 14 29 37 39 38 42 61 74 77 80 80 80 83 85 86 77 68 68 69 77 78 77 77 76 71 80 54 25

GFSGL_700_rhum_030.txt.gz
RH
47 47 52 48 41 40 34 33 37 42 44 62 63 70 82 92 95 95 100 100 92 100 99 100 100 100 100 99 98 91 88 89 75 78 84 86 55 22 23 20 14 10 7
62 72 70 60 49 44 40 38 40 38 36 54 67 76 85 85 99 98 98 100 88 100 87 100 100 100 100 99 99 98 90 81 86 85 83 35 22 22 16 10 8 4 3
86 80 64 65 57 51 50 38 48 54 47 47 60 76 84 90 96 99 100 99 100 89 99 99 98 99 100 98 99 90 88 95 90 70 23 23 19 12 8 5 4 3 4
92 92 78 69 65 58 51 44 42 58 62 63 67 76 84 95 100 99 97 86 98 98 98 100 99 99 100 98 98 97 97 87 31 22 22 15 9 6 4 4 3 3 4
94 98 95 92 71 50 44 38 41 55 68 74 81 88 90 99 100 98 100 100 99 100 100 99 98 99 98 96 99 96 47 22 23 18 10 7 4 4 4 3 3 4 5
98 90 79 71 49 39 39 35 54 65 80 86 100 98 100 98 100 99 100 89 99 100 99 98 98 98 98 98 68 22 23 20 13 8 6 4 4 4 4 4 4 7 15
79 82 72 55 51 45 43 62 82 88 84 86 100 100 98 99 100 100 100 100 98 98 98 98 98 98 81 25 23 20 14 9 6 5 4 4 4 4 4 5 13 21 22
98 77 66 51 54 57 69 86 99 97 99 99 97 100 100 100 100 99 99 99 96 96 98 98 69 25 23 21 15 10 8 6 5 5 5 4 5 5 6 16 19 22 27
99 98 93 97 74 97 98 91 90 98 99 99 99 99 100 99 98 98 99 98 97 76 30 23 25 22 16 11 9 8 6 5 5 5 5 6 7 10 26 24 32 33 36
100 100 99 95 87 100 97 97 98 99 99 99 98 98 98 98 98 98 89 32 25 25 26 23 16 11 9 8 8 6 5 5 5 5 7 10 18 32 36 39 42 45 52
95 98 98 98 98 98 98 98 98 98 98 97 98 97 92 62 31 25 25 26 24 19 15 11 10 9 8 8 7 6 6 5 5 7 11 34 38 41 47 53 55 60 61
97 98 98 98 97 97 97 97 97 94 63 39 28 25 25 27 27 23 20 18 15 13 11 10 10 10 9 7 6 6 6 5 7 13 37 40 44 51 56 57 63 67 64
74 64 56 44 38 32 29 28 26 24 24 27 28 27 24 21 19 18 17 15 14 13 12 10 10 9 8 7 7 6 5 9 27 41 43 47 52 53 56 57 64 64 66
30 30 28 25 24 24 26 28 28 29 28 25 23 20 20 19 18 16 14 13 12 11 10 9 9 8 8 8 6 8 16 38 41 45 51 53 52 56 59 58 60 63 64
26 24 25 28 29 30 30 29 27 25 23 21 21 21 19 17 15 12 10 10 9 9 9 8 9 9 8 8 16 38 42 43 48 53 53 51 55 60 64 60 60 60 65
25 28 30 31 31 30 28 27 25 23 23 23 21 18 15 12 9 8 7 7 8 8 9 10 9 8 14 36 46 48 47 50 53 56 56 56 60 64 63 60 58 67 69
30 33 33 32 31 30 28 26 25 25 23 19 16 11 8 5 4 5 6 7 9 10 10 8 9 27 45 46 50 52 55 57 58 57 57 63 65 68 69 63 68 69 59
34 34 33 31 31 30 29 28 26 23 19 14 8 5 4 3 4 5 6 8 9 8 7 13 34 39 45 47 48 52 56 58 58 60 62 68 69 68 68 65 62 58 54
35 34 33 33 34 34 31 28 24 18 12 7 4 3 3 3 4 4 6 8 8 7 17 32 38 42 43 45 52 56 57 55 57 61 65 66 68 62 60 63 58 57 62
35 35 36 38 38 34 30 25 20 13 7 4 3 3 3 3 4 5 7 8 7 20 31 36 38 39 47 54 59 60 60 57 59 62 64 65 60 66 74 75 66 62 69
38 38 40 40 38 34 28 22 15 8 5 3 3 3 3 4 5 6 7 6 20 30 34 35 40 52 60 65 69 68 64 59 59 62 62 59 65 73 75 78 74 64 68
39 40 41 42 38 33 27 19 11 6 4 3 3 3 3 4 6 7 6 16 29 33 34 44 52 58 63 70 75 76 72 65 63 63 60 60 69 71 72 70 69 62 68
40 39 42 43 40 34 25 15 8 4 3 3 3 3 4 6 7 7 12 26 33 37 44 48 52 62 71 75 76 76 76 74 66 64 61 60 67 72 70 64 67 72 76
39 40 43 46 43 34 21 11 6 3 3 4 4 4 5 7 7 9 24 34 40 42 41 44 60 72 76 80 81 82 81 81 76 67 66 61 62 65 68 69 74 74 76
39 40 45 49 45 31 16 7 4 3 4 4 4 4 6 6 8 23 32 38 35 35 48 67 71 75 78 80 83 87 86 82 83 79 70 67 63 64 69 73 76 72 74
39 41 47 51 43 25 11 5 4 4 4 4 4 5 6 8 21 31 35 33 41 61 66 68 72 74 77 78 80 84 84 84 86 87 80 74 71 65 70 74 78 72 72

GFSGL_700_rhum_033.txt.gz
RH
55 60 59 49 43 46 45 44 43 39 36 42 52 67 74 76 73 74 88 97 92 92 100 100 96 100 99 100 100 100 100 99 99 100 98 98 97 88 88 46 23 24 16
42 51 73 67 70 80 70 59 48 39 35 37 44 48 62 73 75 76 92 95 99 100 93 100 95 100 98 100 97 100 100 99 98 99 98 98 97 88 32 24 20 12 7
23 39 77 87 89 85 82 74 54 58 40 42 43 43 44 67 82 81 96 100 100 98 98 95 100 100 100 99 95 99 99 99 98 97 98 97 52 22 23 14 8 6 4
38 46 64 95 96 90 84 79 80 72 53 41 48 51 47 60 77 88 97 99 97 85 100 100 100 100 100 99 100 98 98 97 97 97 96 49 22 18 11 7 6 4 3
52 57 75 93 89 94 95 90 86 71 53 43 49 56 56 62 88 92 89 84 97 99 100 100 100 100 99 99 100 98 98 97 96 78 22 19 11 8 6 5 4 3 3
78 76 80 80 81 86 77 68 60 52 54 55 62 65 67 75 82 90 99 100 100 100 100 100 99 98 98 99 98 97 97 90 24 20 13 9 7 6 5 4 4 3 3
64 76 70 70 69 63 60 56 58 65 73 78 89 98 80 88 99 100 100 99 98 99 99 98 96 98 98 97 97 81 24 20 14 9 7 6 5 5 4 4 3 5 16
50 63 55 54 53 56 52 58 68 88 97 98 100 100 100 100 99 100 100 100 100 98 99 96 97 98 76 37 23 19 13 9 8 7 6 6 5 5 4 4 9 18 23
77 79 70 93 82 73 91 100 100 100 98 100 94 99 98 99 100 99 98 97 96 96 96 60 28 24 22 17 14 11 8 8 7 7 6 6 5 4 6 11 27 29 29
99 100 100 95 95 99 100 99 99 88 100 99 99 98 97 97 97 98 98 97 47 24 26 23 18 16 14 11 9 9 9 8 8 7 6 5 5 8 26 33 34 35 33
87 95 96 89 96 96 97 96 97 97 97 96 97 97 91 71 45 25 25 26 23 20 17 15 14 12 10 10 10 10 9 7 6 6 6 9 22 43 44 44 43 40 38
84 86 88 90 90 87 88 88 81 61 37 27 25 25 26 26 24 21 19 18 17 16 15 14 13 12 11 10 8 7 6 6 5 9 24 45 47 48 51 46 48 46 46
31 30 29 27 26 25 25 25 26 26 26 25 24 22 20 20 20 20 20 18 15 13 12 11 9 7 6 6 7 6 5 9 23 42 46 48 50 51 51 52 53 48 51
24 24 25 28 29 29 29 28 26 25 24 22 22 22 22 21 18 14 11 8 7 6 5 5 6 6 8 8 6 10 22 32 35 43 50 52 52 52 54 54 55 45 49
26 29 31 32 32 30 28 27 25 23 24 24 25 21 17 13 8 5 4 4 4 4 5 6 8 8 7 8 19 26 30 37 42 44 46 47 48 51 57 58 58 54 56
30 32 33 33 31 30 29 26 26 27 26 23 18 14 9 5 4 3 3 3 3 4 6 7 6 6 14 24 27 35 38 42 45 47 47 47 51 56 58 61 58 51 47
33 34 34 32 32 31 30 30 29 26 22 16 11 6 4 3 2 2 3 3 3 5 6 6 7 20 24 32 38 42 46 47 48 48 48 50 54 56 55 52 54 60 56
35 36 34 34 34 35 34 31 28 24 18 12 7 4 3 2 2 2 3 3 5 6 6 10 22 27 36 39 40 44 48 50 50 49 50 53 55 53 52 57 67 68 66
36 36 36 37 39 38 34 31 27 22 15 8 5 3 2 2 2 3 3 5 6 6 11 22 26 34 36 38 46 52 55 57 55 53 54 57 57 51 54 60 64 69 71
37 37 38 40 40 39 36 32 27 20 12 7 4 2 2 3 3 3 4 6 6 10 22 27 32 33 41 51 57 61 65 65 63 60 58 58 59 55 57 60 66 67 70
38 38 39 40 41 41 39 34 27 17 10 5 3 2 3 3 3 4 5 6 8 21 27 30 32 45 54 58 61 67 71 73 73 71 66 61 61 56 60 66 70 75 76
38 39 39 40 42 44 43 37 26 15 7 4 3 3 3 3 4 5 6 6 18 26 30 35 46 50 54 63 69 71 74 75 76 77 76 70 66 64 61 62 69 75 74
39 39 38 39 43 48 47 38 24 12 5 3 3 3 3 4 5 6 6 16 25 31 40 44 44 50 65 71 72 74 77 80 80 80 78 79 76 69 65 62 67 66 70
40 39 38 39 44 48 49 39 20 8 4 3 4 3 3 4 5 6 15 26 34 40 39 39 52 71 78 79 79 80 78 79 80 82 81 80 83 83 74 70 70 73 75
41 40 39 40 44 48 51 37 15 6 4 4 4 3 4 5 7 18 27 36 37 36 41 65 71 74 77 79 80 81 81 83 82 82 82 80 79 85 85 78 77 75 77
42 42 41 42 44 50 52 32 9 5 5 5 4 4 4 6 15 24 33 36 39 55 71 73 75 76 79 80 82 83 84 86 87 90 88 86 87 88 85 78 76 76 75

GFSGL_700_rhum_036.txt.gz
RH
20 28 41 50 52 51 48 43 43 46 46 42 37 36 43 62 72 80 80 83 83 86 92 97 100 98 99 94 90 98 100 100 100 99 99 99 100 100 98 98 97 94 90
19 20 19 20 27 40 60 73 65 68 63 52 45 39 37 40 48 72 81 77 83 88 95 100 100 97 100 98 98 99 100 100 99 100 99 99 99 98 96 96 97 93 74
24 24 24 27 28 35 76 90 88 85 75 63 47 46 43 42 47 54 69 82 78 78 85 87 100 98 100 100 100 100 100 99 99 98 98 98 98 98 97 96 96 56 19
51 49 41 35 38 48 73 96 89 79 85 80 65 63 56 52 59 54 57 68 84 87 93 95 99 100 100 100 100 100 100 99 98 98 100 98 97 98 97 76 22 12 8
58 61 59 61 57 67 81 87 90 92 86 80 78 79 68 56 58 66 64 65 85 98 99 95 99 100 100 100 98 99 98 96 96 98 97 95 97 77 21 14 9 7 6
40 40 58 56 58 68 70 68 69 71 87 84 92 67 60 57 66 76 84 74 78 98 99 93 100 100 99 99 98 98 97 97 93 97 97 40 21 14 8 7 6 6 6
32 31 44 40 47 50 55 60 55 54 52 56 64 67 79 81 98 100 100 100 100 100 99 100 99 100 97 96 96 97 95 93 76 29 18 12 9 8 8 7 6 6 5
45 39 36 38 39 37 43 43 48 62 72 74 93 96 99 100 99 96 100 100 99 93 98 99 94 91 91 95 98 73 33 23 16 10 9 9 9 8 8 7 6 5 7
75 70 55 46 62 55 42 50 88 97 95 100 98 100 100 97 95 98 98 98 97 95 96 96 98 80 42 26 24 20 14 10 10 10 10 9 8 7 6 5 7 20 30
74 84 79 78 84 99 98 99 100 100 100 99 97 97 96 97 98 96 97 97 92 86 45 27 25 23 18 15 13 12 11 11 10 8 6 6 6 5 6 16 32 37 42
73 76 77 78 81 80 84 89 94 97 97 97 96 97 95 86 78 46 29 26 25 23 20 18 17 16 13 13 12 10 7 6 6 6 5 4 7 18 29 33 41 45 46
40 45 43 40 39 41 45 42 37 32 29 26 26 26 26 24 22 20 19 19 19 19 17 15 13 10 8 5 4 4 5 5 4 6 14 22 28 32 39 44 47 48 52
25 24 25 26 29 30 30 30 28 27 25 23 21 20 20 21 20 19 16 13 10 7 4 3 3 3 3 4 5 5 5 10 17 22 28 35 40 46 48 49 53 54 54
25 29 31 33 32 31 29 27 25 23 22 23 24 23 20 16 12 7 4 3 2 2 2 2 2 3 4 4 5 8 16 21 27 35 38 41 44 46 47 48 54 58 60
29 32 34 33 32 30 29 26 26 26 27 25 21 17 11 7 4 3 2 2 2 2 2 2 3 4 5 5 12 17 23 32 34 36 39 42 44 46 51 56 58 58 49
30 34 34 33 32 31 30 30 30 29 26 22 17 12 7 4 3 2 2 2 2 2 2 3 5 5 7 14 16 24 30 33 37 40 43 44 47 50 55 58 55 51 56
32 34 35 34 34 34 35 34 31 28 25 20 15 9 6 3 2 2 2 2 2 2 3 5 5 8 16 18 27 31 34 38 44 48 50 50 50 52 54 55 52 57 63
32 35 35 36 36 38 38 36 33 30 26 21 15 9 5 3 2 2 2 2 2 3 4 5 8 16 18 27 31 34 41 48 55 58 58 56 53 53 57 56 53 57 62
32 35 36 37 38 39 39 38 36 33 29 22 15 8 4 3 2 3 2 3 3 4 5 7 17 21 29 32 35 45 54 60 64 67 69 66 62 59 58 59 54 57 64
32 36 37 38 37 38 40 42 42 39 33 22 13 6 3 3 3 3 3 3 4 5 6 16 24 31 34 37 48 56 60 65 69 71 73 73 73 70 66 63 63 60 62
32 37 38 38 36 38 41 45 47 44 34 20 10 4 3 3 3 3 3 4 5 6 14 23 29 31 38 51 55 59 67 71 72 73 76 79 81 81 84 79 72 71 70
33 37 38 38 37 38 41 45 48 47 34 16 6 4 4 4 3 3 4 4 5 12 23 30 33 42 48 49 56 68 72 77 79 78 79 82 85 86 87 87 87 84 78
34 38 39 38 38 38 40 41 48 49 30 11 4 4 4 4 4 4 5 7 15 24 30 38 43 42 43 63 73 74 75 77 78 80 80 83 82 84 86 86 90 91 87
35 38 40 40 38 38 39 41 49 49 23 6 5 6 5 4 4 6 14 19 26 34 39 38 38 54 73 75 76 77 79 82 82 85 87 86 83 88 91 91 88 83 80
35 38 40 41 40 40 42 44 52 46 13 6 7 7 5 5 5 12 20 26 33 36 36 43 64 71 76 79 80 79 81 84 87 91 90 85 81 79 79 78 75 58 44
41 41 40 42 42 43 45 47 56 38 8 9 10 8 7 8 9 15 24 30 35 40 51 66 72 73 72 72 74 79 87 93 95 96 88 78 68 54 41 35 35 45 58

GFSGL_700_rhum_042.txt.gz
RH
13 12 12 14 15 16 17 20 23 31 43 49 49 47 46 45 46 53 59 59 60 59 70 72 77 78 80 86 91 94 99 100 99 99 99 99 99 98 100 98 100 100 98
26 17 15 18 24 32 37 36 31 27 26 26 28 30 32 46 71 72 64 67 69 70 80 83 77 77 86 89 95 98 100 100 99 99 98 100 96 97 99 99 100 100 100
41 36 34 40 47 47 51 52 48 40 42 41 39 35 37 49 76 80 74 81 80 82 88 86 89 80 64 77 97 99 100 100 100 99 99 100 99 99 95 96 100 100 94
38 42 42 46 45 30 37 36 28 29 28 35 40 43 49 61 76 78 78 81 83 84 92 80 90 86 72 59 80 96 99 100 100 99 96 99 99 99 98 100 100 97 97
42 44 46 37 18 18 23 17 18 29 38 39 42 42 42 46 68 78 86 91 90 80 78 75 71 95 91 86 90 100 100 100 99 100 92 100 99 100 100 99 96 94 75
50 45 37 24 16 17 13 15 21 32 37 28 30 35 36 43 49 57 61 83 79 74 74 73 95 98 100 99 100 99 99 98 100 91 98 99 100 99 93 64 24 19 13
50 50 47 24 19 17 16 19 21 24 25 25 28 28 31 35 42 56 65 99 97 99 99 100 100 100 100 100 96 99 99 97 99 100 98 93 59 26 20 14 13 12 7
50 54 44 36 38 42 52 49 28 23 31 36 37 48 64 72 89 100 100 93 94 93 98 98 97 98 98 98 97 97 96 92 73 39 24 19 16 14 12 7 4 3 3
49 49 49 51 53 55 59 61 61 59 62 69 77 75 75 77 82 88 93 96 91 89 92 94 97 88 77 49 38 28 22 20 18 16 15 11 7 3 3 3 3 5 10
50 40 32 31 36 40 47 55 62 64 67 70 69 51 36 27 25 26 28 25 25 22 23 23 24 20 19 18 14 11 10 8 6 4 3 3 3 3 4 9 13 16 21
25 24 22 23 25 28 29 29 30 30 29 28 27 25 23 24 24 22 19 15 10 7 4 3 3 3 2 2 2 2 2 2 2 2 3 3 5 10 14 19 22 25 28
24 23 26 29 31 31 31 30 28 26 25 24 25 26 24 19 13 9 6 4 3 3 2 2 2 2 2 2 2 2 2 2 3 3 4 9 14 21 24 27 29 31 33
24 26 29 31 32 31 30 29 27 26 28 28 26 22 19 15 11 9 7 4 3 3 2 2 2 2 2 2 2 2 3 3 4 6 11 17 25 28 30 32 35 37 38
25 27 30 32 33 32 31 29 30 31 31 28 26 24 22 19 16 12 8 5 4 3 3 3 2 2 2 2 2 3 3 4 9 14 22 29 32 36 38 39 40 42 42
27 27 30 32 33 33 33 33 35 35 33 32 31 30 29 26 22 16 10 6 5 4 4 3 3 3 3 3 3 4 5 12 17 26 32 35 39 43 47 48 49 49 48
30 27 30 32 33 34 35 37 38 37 37 38 38 39 38 34 28 18 9 5 5 5 3 3 3 3 3 4 4 6 14 18 28 35 38 42 48 53 58 60 60 60 59
39 29 28 32 34 35 36 38 38 38 39 40 42 44 43 39 28 17 8 5 5 4 3 4 4 3 3 4 7 15 20 30 36 39 46 55 59 63 65 66 66 66 68
61 35 27 30 34 35 37 37 35 36 39 41 42 42 45 41 29 16 6 5 4 4 4 5 4 4 5 8 16 22 33 36 38 49 58 61 65 67 69 71 72 72 73
94 50 31 28 34 36 37 37 35 36 37 36 36 39 46 38 21 8 5 5 5 5 6 6 6 8 11 17 22 30 34 40 52 58 60 68 76 75 77 80 79 80 79
98 90 44 28 31 36 37 37 36 36 36 35 35 42 48 30 12 6 6 6 6 8 10 11 12 15 18 24 28 33 44 51 53 55 71 79 81 81 82 83 86 86 87
98 97 92 34 30 34 38 38 37 36 36 36 37 48 47 20 8 6 7 7 8 12 14 16 20 24 30 36 41 43 44 51 72 79 82 85 86 86 90 91 94 96 95
98 97 97 49 37 33 38 39 38 38 38 38 39 52 41 13 8 8 9 10 12 15 18 21 26 30 34 37 39 48 70 80 83 84 85 84 88 96 96 96 96 92 78
96 97 96 70 45 32 38 40 41 41 40 40 41 56 37 11 10 12 13 15 18 21 23 26 30 35 40 51 65 73 77 81 80 78 79 84 92 96 96 90 79 69 60
98 97 96 96 52 32 38 48 75 45 42 43 44 59 36 12 14 16 19 23 29 32 34 36 39 42 48 56 62 64 65 70 80 91 93 92 93 94 90 88 81 66 62
97 97 94 78 35 32 44 76 78 43 43 45 47 61 41 14 17 20 26 35 36 37 40 44 46 50 57 63 69 75 79 83 86 88 88 88 88 88 86 72 62 66 76
97 97 96 86 42 32 53 91 65 41 44 47 50 63 47 15 20 23 34 37 37 38 39 38 40 42 47 54 56 63 68 75 81 84 85 81 77 74 69 70 78 73 58

GFSGL_700_rhum_045.txt.gz
RH
22 22 19 14 11 11 13 16 19 23 25 26 28 28 29 31 37 46 54 58 61 66 60 58 58 66 80 79 82 91 99 100 100 97 99 100 99 100 96 99 99 99 95
28 30 30 27 22 24 32 40 44 45 44 43 40 35 33 34 35 37 42 53 73 74 69 71 69 75 80 82 84 81 89 99 97 100 100 100 99 100 100 99 99 99 98
33 36 37 36 33 35 43 44 41 45 31 26 28 28 31 30 30 34 52 64 73 79 81 70 84 91 88 93 88 96 90 85 99 99 99 100 99 99 99 100 100 96 100
35 34 36 41 41 41 37 18 22 22 21 24 28 27 25 28 31 33 40 44 51 69 80 83 84 88 81 83 86 95 89 90 96 99 95 98 100 100 100 99 100 99 99
40 40 43 42 42 29 17 19 17 18 20 21 25 23 21 26 28 33 39 43 46 55 72 86 80 75 78 94 78 99 99 100 99 98 95 99 100 100 100 98 96 95 96
48 48 44 40 40 20 21 17 16 19 20 18 18 20 22 23 25 31 37 44 51 56 71 71 87 84 77 84 95 99 100 100 99 100 99 100 100 99 98 98 70 29 21
46 45 44 45 29 21 22 22 24 22 21 23 26 30 35 50 54 57 64 66 72 77 83 85 93 93 90 99 97 94 98 91 93 99 99 100 94 55 24 21 16 14 12
44 46 43 41 43 45 50 54 55 39 33 52 58 61 55 46 41 52 65 76 82 76 69 85 92 95 92 81 78 79 82 74 55 38 24 21 18 17 14 11 7 4 3
48 45 43 42 38 34 42 46 52 54 54 57 54 39 27 24 24 23 23 22 21 19 17 17 18 19 21 19 17 16 15 13 12 10 8 8 6 4 4 3 3 3 4
26 23 21 23 23 24 25 27 31 33 31 29 27 25 24 24 23 19 11 7 5 4 3 3 2 2 2 2 2 2 2 2 2 2 2 3 3 3 3 3 5 11 15
23 22 23 26 28 29 29 29 29 27 25 24 24 26 24 20 15 11 9 7 6 5 4 3 3 2 2 2 2 2 2 2 2 2 2 3 3 4 5 11 17 22 25
23 23 26 28 30 30 29 28 27 26 26 27 27 24 21 19 17 16 14 12 9 7 6 5 4 4 3 3 2 2 2 2 3 3 4 4 6 11 16 23 26 28 30
25 25 28 30 31 31 31 29 28 29 30 29 27 26 26 26 25 24 22 19 14 8 7 6 6 4 3 3 3 3 3 3 3 4 5 10 15 22 27 29 32 33 35
27 26 28 31 32 32 32 31 32 34 34 33 32 33 34 35 35 33 30 25 17 10 7 7 5 3 3 3 3 3 3 4 4 7 14 18 26 32 35 36 39 41 44
33 28 28 30 32 33 33 34 36 37 36 37 38 39 40 41 40 39 33 26 15 8 7 6 4 4 4 4 4 3 4 6 9 16 19 29 34 36 40 46 50 53 55
51 34 28 29 32 33 34 36 37 37 35 36 38 40 40 41 42 41 34 23 11 6 6 4 5 5 5 5 4 5 7 12 17 22 32 37 40 45 52 59 61 63 65
96 69 35 28 31 34 34 36 37 35 34 36 38 37 36 39 44 42 28 13 7 6 5 5 7 7 7 7 8 10 14 17 25 34 37 39 46 56 59 66 72 72 74
96 94 63 34 28 32 35 36 37 36 36 37 36 36 36 42 47 36 19 8 6 6 6 8 9 10 10 12 13 17 21 28 32 34 39 50 57 59 69 77 81 80 79
99 95 94 69 34 29 33 36 37 37 36 36 35 36 37 47 47 29 12 6 6 7 8 10 12 13 15 18 21 25 29 34 42 47 49 52 65 77 80 85 87 90 89
94 99 97 97 72 33 30 35 38 38 37 36 36 37 38 50 47 24 10 7 8 9 11 13 15 18 21 25 29 34 37 40 42 48 66 78 82 84 86 88 93 92 94
100 99 99 97 97 80 33 33 37 39 38 38 38 38 39 52 47 20 10 10 11 13 16 19 22 25 27 30 33 37 44 57 72 76 80 84 83 81 87 89 93 95 95
99 100 100 98 97 97 52 39 35 39 40 44 51 40 41 54 53 21 12 13 14 18 25 29 31 33 35 38 42 48 54 61 65 67 69 70 76 88 94 92 91 90 88
99 100 99 98 97 97 85 68 35 38 44 78 68 42 42 49 57 25 14 14 18 26 30 32 34 35 36 40 48 54 58 64 68 76 80 78 81 86 86 86 88 87 82
98 98 98 98 97 97 96 79 41 37 59 88 55 43 44 48 61 35 15 16 23 31 32 34 35 32 34 38 43 48 54 55 57 65 69 68 70 76 76 74 74 70 67
98 98 98 97 97 97 96 68 34 43 72 93 47 44 46 51 70 49 17 19 28 34 36 37 35 31 32 34 38 42 46 48 49 56 60 58 59 63 64 59 60 65 70
98 97 97 96 97 96 94 55 36 57 89 91 43 43 49 64 82 54 20 21 32 37 38 38 33 30 32 34 37 40 41 41 42 48 54 52 49 50 52 58 67 61 50

GFSGL_700_rhum_048.txt.gz
RH
33 32 26 20 20 19 15 12 12 15 18 24 28 31 33 33 32 31 31 31 31 30 32 38 42 53 62 65 66 70 74 80 86 94 91 92 98 99 98 96 98 98 98
33 29 26 27 28 27 25 23 26 35 39 41 43 43 39 31 29 28 26 23 24 33 39 47 60 75 79 69 76 90 92 93 99 99 99 88 98 99 98 98 98 98 98
34 32 29 33 35 35 34 33 35 40 38 39 34 21 21 25 29 27 25 23 29 35 39 43 55 63 71 76 78 80 78 82 87 98 98 94 95 97 98 99 98 97 100
40 38 34 34 35 37 39 41 40 21 23 20 15 18 25 24 23 23 22 24 32 40 38 40 45 47 57 65 76 76 75 86 93 94 97 99 99 98 97 98 98 98 99
41 43 42 41 41 42 45 32 19 20 16 14 16 20 18 18 20 21 22 27 33 38 45 44 54 57 61 74 78 78 80 88 87 98 99 98 100 99 99 100 100 98 98
47 48 47 47 45 41 35 21 19 16 17 17 19 19 22 25 26 40 47 53 60 58 58 57 61 65 73 72 71 86 97 93 94 88 90 94 99 100 99 99 100 100 91
45 47 49 47 44 34 25 25 26 29 32 22 27 38 42 52 47 42 46 58 64 63 42 38 62 69 71 74 58 54 75 87 96 96 98 98 97 86 77 66 29 20 16
43 45 45 42 43 44 43 44 50 52 41 41 51 58 46 30 22 22 21 19 15 12 8 5 6 7 19 25 14 10 11 13 14 16 18 18 17 16 13 12 10 8 7
43 45 44 41 31 28 35 41 49 50 47 44 39 30 24 23 23 20 13 9 7 6 5 4 4 3 3 2 2 2 2 2 2 2 2 2 3 3 3 3 4 4 3
25 23 22 22 23 24 25 25 26 27 27 27 25 23 24 24 18 14 11 10 10 10 9 8 6 5 4 4 4 3 3 3 2 2 2 2 2 2 2 3 3 4 4
24 22 22 25 28 28 28 27 27 26 24 24 25 25 23 21 19 18 19 19 18 16 14 11 9 8 8 8 6 4 4 3 3 2 2 2 3 3 3 4 5 11 17
24 22 25 28 29 29 29 28 27 26 26 27 28 26 25 25 26 26 27 28 27 26 21 15 12 13 12 9 5 4 3 3 3 3 3 3 3 4 5 10 15 23 28
27 24 26 28 29 30 30 30 29 29 30 31 30 30 31 33 35 35 36 36 35 30 23 15 12 13 10 5 4 4 4 4 4 4 4 4 5 9 13 19 29 33 36
33 28 26 28 29 30 32 32 31 33 35 36 35 36 36 37 38 38 39 39 37 31 23 14 12 9 5 4 5 5 5 5 5 5 6 8 12 16 23 31 36 40 43
52 35 28 28 30 32 32 33 34 36 37 36 35 35 36 37 37 38 40 42 36 25 14 10 8 5 5 6 6 6 7 7 8 8 10 13 16 25 33 38 42 47 53
74 56 40 30 29 31 33 33 34 36 37 35 34 35 36 36 36 38 45 42 31 18 10 8 6 6 7 8 8 10 10 11 12 14 16 22 29 35 38 44 51 60 62
89 93 89 53 32 29 32 34 34 35 36 35 34 35 35 35 36 42 47 38 24 12 7 7 7 8 9 11 13 15 16 18 20 22 26 30 33 37 47 58 61 65 73
98 96 96 96 62 36 30 31 34 35 37 37 36 36 35 36 37 44 49 33 15 9 7 8 8 10 12 15 19 21 23 27 31 35 38 42 46 49 52 63 77 79 80
97 100 99 97 97 83 51 32 31 35 37 38 37 37 36 37 37 42 52 31 16 10 9 9 12 15 19 23 25 27 29 31 34 37 39 44 56 73 79 82 83 84 82
95 98 98 98 100 99 96 79 40 32 36 38 39 38 39 41 39 41 54 38 17 11 11 13 16 22 27 29 30 32 35 40 45 50 60 71 77 76 74 71 71 72 80
98 98 99 100 96 100 99 98 91 46 34 37 39 40 45 66 49 41 54 50 21 14 14 17 21 25 29 31 30 30 33 41 47 52 58 62 65 68 77 82 84 85 84
98 98 96 99 99 100 99 98 98 79 50 39 38 42 65 80 50 43 46 56 35 16 15 22 27 30 32 33 29 28 30 35 45 54 60 62 64 68 71 74 77 80 84
99 99 98 97 99 100 99 98 98 96 92 52 38 44 70 81 49 45 47 63 51 18 17 25 31 34 35 33 29 29 31 35 40 45 48 50 55 62 66 68 71 74 76
98 98 98 99 97 97 98 98 97 96 95 54 41 45 83 84 50 48 51 73 67 23 20 28 34 36 38 33 30 31 32 35 38 41 43 43 44 48 53 55 55 59 60
97 98 97 98 97 97 97 96 96 96 95 88 48 52 85 84 49 49 56 81 68 23 23 32 36 38 37 30 31 32 34 37 38 39 40 40 40 41 40 41 45 50 62
98 97 97 97 97 97 96 96 96 96 94 77 44 64 90 93 84 90 94 94 65 24 27 37 39 39 33 30 31 33 35 34 34 35 36 37 39 41 47 55 63 64 60

GFSGL_700_rhum_051.txt.gz
RH
29 31 32 32 32 29 23 21 20 16 13 13 16 22 29 33 35 36 36 35 33 30 26 26 26 29 32 38 43 52 63 59 67 68 73 74 81 91 90 89 93 94 99
37 36 35 35 32 27 27 29 29 25 25 28 36 41 43 42 42 31 24 25 24 22 21 21 29 30 35 40 44 52 57 65 74 80 76 75 79 93 95 90 95 99 100
39 39 37 37 34 30 33 37 38 37 35 37 41 34 35 24 17 19 21 20 20 22 22 32 35 33 37 43 43 45 55 66 72 74 77 76 77 87 96 98 96 98 98
40 38 39 39 38 32 35 36 38 41 42 31 21 22 16 16 18 15 15 17 17 19 26 32 42 41 39 50 52 53 53 65 69 63 72 76 71 83 92 95 95 100 100
39 41 41 41 43 41 41 41 42 37 23 20 18 16 16 15 15 15 14 17 28 34 38 43 51 50 47 55 57 56 60 67 59 63 68 76 84 96 93 94 99 99 98
45 46 46 44 45 46 46 42 37 23 20 18 18 18 22 24 30 34 40 37 40 50 56 54 44 56 58 56 58 40 32 29 30 46 55 69 83 89 99 100 93 93 97
42 44 48 47 46 44 41 32 24 24 24 29 28 25 38 46 48 32 21 22 23 34 19 10 6 4 7 8 17 10 4 3 3 4 6 9 11 14 16 18 20 20 20
42 43 46 47 43 39 40 42 44 48 49 41 40 51 52 41 25 21 20 14 10 8 7 6 6 6 5 4 4 4 4 3 3 3 3 2 2 2 2 2 3 4 4
42 43 43 44 40 30 33 38 42 46 45 50 46 36 27 23 22 21 16 14 12 11 12 13 12 10 8 7 7 7 8 7 6 5 3 3 2 2 2 2 2 2 2
31 27 28 24 24 28 26 25 30 35 32 28 26 24 23 24 22 19 17 17 19 20 21 20 19 16 14 14 14 14 11 8 5 3 3 3 3 3 3 3 3 3 3
25 23 22 24 26 27 27 27 27 27 25 24 23 24 25 23 22 23 24 25 27 29 31 31 28 24 19 18 18 13 8 4 4 4 3 3 3 3 3 3 4 4 5
27 24 23 27 28 28 28 28 28 27 26 26 27 28 27 27 28 30 32 34 36 36 35 34 32 27 20 18 14 8 4 4 4 4 5 5 5 5 5 6 7 10 14
34 27 24 26 28 29 29 30 29 29 29 30 32 32 33 34 35 34 34 35 36 37 37 36 31 21 16 12 7 5 5 5 6 7 7 7 7 7 8 10 14 20 28
48 33 27 27 28 28 30 31 31 31 32 34 35 35 34 33 32 34 35 36 36 39 40 34 24 15 11 7 5 5 6 7 9 10 10 10 10 11 12 15 23 31 36
67 48 35 29 28 29 30 30 31 32 33 35 36 34 32 32 34 34 35 37 41 43 36 26 14 10 8 6 6 7 9 12 14 15 15 16 16 19 23 28 33 37 41
88 76 57 42 33 30 30 31 32 32 33 35 36 34 32 33 34 34 36 38 45 44 34 20 11 8 7 7 8 10 15 18 19 20 22 24 26 28 31 35 40 48 54
95 93 90 82 61 40 33 30 31 32 33 34 36 36 34 34 34 34 36 38 44 47 33 19 10 8 8 9 12 16 20 22 23 24 25 28 31 36 40 45 49 52 59
95 94 99 100 96 86 58 42 35 31 32 34 36 37 37 36 35 35 40 41 40 50 38 20 12 10 10 12 16 22 25 25 25 25 28 35 42 46 52 62 75 79 82
98 98 97 100 99 95 96 90 74 56 39 33 34 36 38 38 37 38 48 57 42 50 46 24 14 11 12 16 20 24 26 25 23 24 29 37 47 53 60 67 70 72 70
99 99 100 97 91 97 97 99 100 96 87 64 37 35 37 39 39 41 66 69 43 44 53 34 19 15 15 20 24 27 29 26 25 25 28 35 45 52 58 64 67 70 76
100 99 98 98 94 99 97 97 95 99 98 97 82 52 40 38 40 45 73 73 46 45 56 53 29 17 18 24 28 31 31 28 27 28 31 36 42 48 55 58 62 66 70
99 100 98 98 98 98 98 98 96 95 98 98 97 80 62 48 40 47 77 72 53 46 59 69 44 21 22 29 32 34 32 28 29 30 33 36 40 44 48 50 54 62 67
98 100 100 99 98 98 97 98 96 98 97 97 96 95 95 70 48 49 83 75 67 53 64 89 72 30 28 34 36 36 31 29 30 31 34 37 39 40 42 43 44 47 49
94 95 99 99 98 98 98 96 97 97 98 96 96 96 96 94 73 91 91 91 91 92 95 94 75 30 35 38 38 36 30 28 28 32 34 34 33 35 36 38 40 44 46
95 98 98 99 98 97 98 98 97 97 96 96 96 96 95 95 94 84 95 94 94 96 95 94 78 41 37 39 38 35 30 28 30 31 32 32 34 38 46 54 62 67 72
98 98 98 97 96 97 97 97 97 96 96 96 96 96 96 96 91 92 95 97 97 95 95 94 73 38 40 39 39 34 29 29 29 30 31 36 46 53 58 60 60 57 55

GFSGL_700_rhum_054.txt.gz
RH
28 25 24 24 27 28 30 32 31 27 23 23 19 15 16 22 33 38 39 40 40 39 32 29 27 25 23 26 29 32 37 38 37 37 49 53 56 57 64 61 72 80 98
36 37 36 36 35 34 34 33 29 27 28 29 28 29 35 39 43 40 40 24 20 20 22 23 21 20 25 30 29 34 41 41 39 48 55 64 63 61 68 64 72 76 87
48 44 41 39 38 38 37 36 30 32 36 36 37 38 38 30 28 19 16 19 20 19 20 20 18 22 34 39 33 34 46 50 46 48 54 58 48 57 68 56 69 69 75
43 40 39 39 38 39 41 40 34 35 37 40 41 35 22 20 16 17 16 15 15 16 17 18 23 30 37 45 45 41 49 50 48 50 55 60 60 59 62 59 61 69 76
45 42 38 38 42 43 43 44 41 40 43 43 29 22 19 17 18 19 23 26 28 35 39 44 50 50 48 52 52 49 49 28 21 13 10 10 6 8 14 32 51 51 58
44 44 44 44 46 47 46 46 47 45 43 28 22 19 19 21 25 35 41 36 27 33 42 41 14 8 6 10 8 11 14 6 4 4 3 3 3 3 3 4 4 6 8
42 41 42 44 48 49 48 49 46 39 27 23 24 29 26 34 46 44 26 19 17 13 11 8 6 6 7 7 7 7 7 6 6 7 8 7 5 4 3 3 3 2 2
42 39 42 45 48 49 46 40 32 32 38 48 45 36 48 50 40 24 21 19 15 13 12 12 13 14 15 14 13 12 11 12 14 13 10 7 5 4 3 3 3 3 3
40 35 39 42 44 43 42 40 41 44 48 46 48 47 40 28 23 22 20 17 16 15 18 20 22 23 24 22 20 18 19 19 16 12 7 4 4 4 3 3 3 3 3
36 31 28 31 29 27 30 32 36 39 39 36 30 27 25 23 24 22 20 20 22 24 26 28 31 32 32 30 24 21 20 16 11 6 4 4 4 4 4 4 4 4 4
33 26 24 22 23 25 27 26 29 28 28 27 25 24 25 26 24 24 25 27 30 32 32 33 34 35 34 31 25 21 16 10 6 5 4 4 5 6 6 6 6 6 6
35 27 24 23 26 26 28 28 28 27 26 25 26 27 28 29 30 31 33 34 32 33 35 35 35 37 34 28 20 15 10 6 5 5 5 7 8 8 8 8 8 8 9
45 33 27 24 26 28 29 30 29 29 28 28 29 32 33 34 34 34 32 32 34 35 37 38 39 36 29 20 14 10 7 6 5 7 9 10 11 12 12 13 14 15 18
60 44 31 28 27 28 30 30 31 31 31 31 33 34 35 35 34 31 31 32 33 37 40 41 39 32 22 13 10 8 7 7 8 11 13 14 14 16 18 20 22 24 28
78 62 45 34 30 29 30 30 31 31 31 32 33 35 36 35 33 31 32 32 34 38 41 44 42 30 20 11 9 8 8 9 11 14 16 16 17 19 22 26 30 35 38
94 88 69 54 43 35 31 30 31 32 32 33 33 34 36 36 34 33 32 33 34 41 45 45 47 37 21 12 10 9 8 10 14 17 19 19 19 20 24 33 36 40 42
99 98 95 87 72 53 42 36 33 32 32 33 33 34 35 36 36 35 35 35 36 44 54 50 49 44 26 15 12 11 12 13 16 20 22 21 20 21 26 35 42 49 60
97 92 92 95 95 99 98 86 63 45 36 35 34 34 34 35 36 37 38 37 38 48 61 53 44 52 39 22 16 13 14 18 22 24 25 23 22 22 27 35 44 48 54
100 99 98 97 97 94 99 99 99 99 88 72 61 54 47 37 36 38 39 40 40 51 60 61 42 51 56 37 22 17 20 24 26 29 28 24 24 24 28 34 41 48 50
98 100 99 99 99 95 96 98 100 97 95 97 98 96 92 87 60 45 40 40 41 52 65 68 48 45 61 61 35 21 25 29 31 31 29 26 26 26 29 34 39 41 46
100 100 100 99 99 98 98 97 97 97 97 97 97 97 99 97 95 79 53 48 44 54 71 69 64 55 60 86 72 34 29 34 35 33 29 28 28 29 33 35 37 40 42
99 100 99 98 99 99 98 98 98 98 98 98 97 96 96 97 96 95 93 92 80 73 83 85 90 94 94 91 76 38 33 36 37 34 30 28 29 31 33 34 34 36 38
91 90 92 96 99 100 100 100 98 98 97 97 97 97 96 97 97 97 97 95 91 90 94 90 94 95 93 94 82 48 35 36 38 35 30 29 30 31 32 33 36 40 46
90 97 100 99 100 98 98 98 99 98 98 97 98 97 97 96 98 98 95 96 95 95 94 92 94 91 94 90 72 41 36 37 38 34 29 28 28 30 32 39 52 61 65
86 100 100 100 100 99 98 97 97 97 97 97 97 97 96 96 96 95 96 95 95 94 95 95 94 93 89 80 45 37 40 40 39 33 29 28 29 33 48 58 62 61 60
71 81 100 100 98 98 97 97 97 97 97 97 96 96 96 96 96 96 97 95 93 94 95 97 95 93 92 79 44 40 42 41 38 32 29 30 38 49 54 54 51 50 52

GFSGL_700_rhum_057.txt.gz
RH
33 30 30 28 26 23 22 22 22 25 27 30 29 25 25 22 19 23 33 38 41 40 39 36 28 25 24 23 22 25 30 30 35 40 38 40 45 47 38 40 50 54 64
32 29 28 27 28 30 33 34 32 33 33 32 28 29 32 30 31 34 40 34 31 18 17 19 20 21 22 21 22 36 37 32 35 45 44 42 47 49 45 49 55 53 60
39 41 44 42 40 38 37 36 34 35 37 32 32 36 36 38 38 29 24 17 17 17 15 15 17 18 19 25 31 38 44 44 40 46 40 33 43 40 18 20 45 51 52
59 53 47 43 39 38 38 36 35 38 39 35 35 38 42 36 23 19 17 17 18 20 19 22 35 42 48 50 49 50 50 50 50 31 10 5 5 4 4 4 6 9 14
56 50 47 44 43 40 39 40 42 42 42 39 41 44 34 25 19 18 22 27 36 38 36 41 48 39 20 13 18 17 26 31 13 6 5 6 6 7 7 7 6 5 4
53 49 46 42 41 43 46 47 47 49 49 47 49 35 24 21 20 25 36 44 28 23 26 24 11 7 5 6 7 7 7 7 8 8 9 10 12 12 12 10 6 5 4
51 49 44 40 41 43 50 50 51 56 55 48 33 24 24 28 29 49 38 23 20 15 11 9 10 12 13 14 16 16 15 13 14 15 17 18 17 14 8 6 6 4 3
54 48 43 40 42 46 49 51 50 48 38 29 30 40 37 41 52 36 24 21 19 16 15 14 16 19 22 24 24 24 24 23 22 22 21 17 10 6 6 5 4 3 3
55 48 40 39 41 44 45 44 43 43 46 50 48 46 51 44 30 24 22 20 18 18 20 23 26 28 31 31 31 31 29 26 24 22 17 9 7 6 4 4 4 4 5
53 46 35 30 36 34 32 40 48 54 53 51 49 41 30 26 24 24 23 22 23 25 30 32 33 33 33 33 33 32 28 24 20 15 8 7 6 5 4 5 5 5 6
56 42 28 25 25 28 29 30 37 44 43 34 28 26 24 25 25 25 26 28 32 34 32 33 35 36 35 35 34 30 24 19 15 10 7 6 5 5 6 7 7 7 8
60 45 29 25 24 27 29 30 30 29 28 26 25 25 26 28 29 30 33 34 33 32 34 36 38 39 38 35 30 24 18 15 12 9 7 6 6 7 8 8 9 10 10
68 51 34 27 26 28 29 30 29 29 28 27 27 28 30 32 34 34 34 32 33 34 34 38 41 42 40 35 26 18 14 13 11 9 8 8 9 9 10 11 12 13 14
78 63 44 32 27 28 30 30 30 30 30 30 30 31 33 35 35 34 32 31 32 32 33 37 45 46 45 41 30 19 13 11 10 9 10 11 12 13 14 14 14 15 17
85 75 58 42 31 29 29 30 30 31 31 31 32 32 33 35 35 35 34 33 33 33 34 37 47 50 48 47 35 21 15 12 11 11 12 13 15 17 17 17 17 17 20
98 95 82 63 49 39 33 31 31 31 32 32 33 33 33 34 35 35 36 36 35 35 35 38 48 51 52 49 45 29 20 16 15 15 16 17 19 21 20 20 19 19 22
97 96 96 94 84 68 53 42 37 35 33 32 33 33 34 34 34 35 36 37 38 38 38 39 46 51 56 47 50 48 33 24 20 19 19 20 23 24 23 22 21 22 26
98 98 97 97 97 97 97 97 93 84 68 50 41 36 35 38 38 38 37 37 38 40 40 41 47 52 59 55 46 58 54 39 27 23 23 25 27 28 26 24 25 26 28
97 100 100 98 97 97 97 97 97 97 98 98 96 94 86 77 76 77 77 61 47 43 42 42 46 58 63 66 54 53 71 79 51 29 27 29 31 30 27 25 26 29 30
82 89 100 100 99 99 98 97 98 98 98 98 97 98 96 98 98 97 97 95 89 80 54 53 70 87 77 80 86 87 88 87 68 40 32 33 34 31 28 26 27 30 32
91 98 100 100 100 100 99 99 99 99 98 98 98 98 98 97 97 96 96 97 96 96 87 85 95 93 95 92 88 87 89 92 78 44 36 36 35 33 28 27 29 30 31
84 88 95 99 100 100 98 97 96 97 98 98 98 98 97 97 97 97 97 97 98 98 96 96 95 96 96 94 91 89 91 93 72 45 38 38 38 34 29 29 30 30 32
89 87 88 91 95 98 95 96 99 100 100 100 99 97 96 98 97 96 97 97 98 96 96 96 97 96 95 94 92 92 91 82 50 37 38 39 39 34 30 29 30 32 43
81 83 84 93 100 100 100 100 100 98 99 97 97 97 97 97 97 96 96 97 96 96 96 96 97 96 95 95 96 95 90 67 46 40 40 40 39 33 29 30 35 49 55
68 59 59 72 76 99 100 100 99 98 97 96 97 96 96 97 96 96 96 96 96 96 96 96 95 92 95 97 96 94 91 74 54 45 43 42 37 31 32 40 54 56 58
6 16 24 43 75 89 100 100 98 97 97 97 97 97 97 96 96 96 96 96 96 96 96 95 95 97 97 96 94 94 90 73 54 47 44 40 33 34 44 50 53 54 53

GFSGL_700_rhum_060.txt.gz
RH
62 56 48 37 34 29 26 25 22 21 20 21 22 26 27 29 25 24 23 22 28 36 41 40 37 30 24 24 25 25 24 25 38 36 32 43 47 44 45 45 42 42 46
57 51 44 36 31 28 26 25 23 23 22 29 32 32 33 29 29 32 32 34 35 33 29 18 17 21 22 21 22 21 24 30 37 44 43 44 44 43 47 36 11 20 38
51 41 34 32 31 32 39 37 36 37 36 34 36 37 35 31 37 37 38 36 26 18 16 15 15 15 15 17 21 31 40 44 48 46 49 44 10 5 5 4 4 5 7
39 45 48 52 49 46 42 40 38 37 39 38 41 43 38 36 40 41 29 21 17 18 21 25 27 32 39 44 39 40 36 42 48 44 19 7 5 6 6 6 6 7 7
56 58 59 54 49 47 42 42 42 38 40 45 49 49 40 42 47 29 21 19 23 32 36 30 33 35 19 8 5 5 5 5 6 7 7 8 8 10 11 12 13 12 10
65 64 59 52 48 45 41 41 44 48 48 51 56 55 55 51 31 22 21 27 40 32 20 19 14 9 8 9 11 13 14 14 13 12 12 13 15 16 17 16 14 10 9
70 68 59 52 48 43 40 41 45 54 58 58 60 60 53 33 25 24 32 44 26 20 15 11 12 13 14 16 19 21 22 23 23 22 22 22 22 21 17 12 9 7 6
68 70 60 53 47 41 43 45 50 57 60 61 60 44 34 30 30 45 46 27 21 18 16 15 16 19 22 24 27 29 30 30 29 28 26 24 21 16 10 8 7 5 4
74 71 59 52 44 40 41 45 47 52 51 41 35 36 43 43 55 42 26 22 20 19 19 21 24 28 30 30 31 32 32 32 30 27 24 20 15 9 8 7 5 4 4
75 70 58 50 38 32 42 42 50 52 50 54 55 53 59 52 32 24 23 22 22 24 27 30 30 30 32 35 35 34 34 31 27 23 20 15 11 9 7 6 5 5 6
78 70 58 44 29 27 31 39 46 54 56 56 58 50 32 26 25 25 25 25 28 32 32 30 31 34 36 38 37 35 31 27 22 19 17 13 10 8 7 7 7 7 8
84 73 61 40 29 25 29 32 38 47 50 42 31 28 25 25 26 27 29 32 34 33 30 31 32 34 38 41 41 37 30 22 17 15 13 12 10 10 10 10 10 10 11
94 95 90 44 30 26 28 31 32 32 30 28 26 26 26 28 30 32 35 36 34 32 32 32 31 33 41 45 45 45 39 26 16 13 12 12 12 12 14 13 13 14 13
100 93 74 50 34 27 28 30 31 30 29 28 28 28 29 31 34 36 36 36 34 33 32 32 32 32 36 40 45 50 46 33 19 14 13 14 14 16 16 16 17 17 17
98 98 97 85 50 32 28 30 30 30 31 30 30 30 31 32 35 36 36 36 35 34 34 34 34 34 36 41 45 51 50 43 28 20 18 19 19 19 19 20 21 20 20
99 98 98 97 69 49 32 30 31 32 32 32 32 32 33 33 34 35 36 36 36 37 37 37 38 39 39 43 46 53 52 48 45 36 28 25 25 23 23 23 24 23 22
100 99 98 97 84 68 48 38 33 32 32 32 33 33 33 34 34 34 35 35 36 37 38 38 41 42 43 46 50 55 60 52 50 54 53 47 34 27 26 27 27 26 25
100 99 98 98 97 96 84 62 51 47 42 36 38 38 38 35 33 33 36 47 57 48 49 47 44 45 46 48 56 75 80 69 63 60 69 78 53 35 30 30 30 29 26
81 98 98 98 97 98 97 97 97 97 97 97 97 97 96 94 93 95 94 89 88 93 92 80 70 60 51 59 74 92 91 91 88 89 89 81 62 42 36 34 34 32 28
83 88 89 99 100 100 100 99 99 99 98 98 98 98 97 97 97 97 97 97 97 96 96 95 96 93 69 69 90 97 98 94 90 90 91 87 65 45 37 36 36 34 29
63 77 93 100 100 100 100 99 100 100 99 100 100 98 98 97 99 97 97 97 97 96 96 97 98 95 93 97 97 98 98 94 92 92 93 86 66 44 38 38 38 35 30
65 69 88 88 98 99 100 98 97 95 95 97 99 99 98 96 95 97 97 97 97 96 96 96 96 96 97 96 98 98 96 94 92 92 88 74 51 42 41 40 41 36 31
76 76 96 98 99 100 100 99 100 100 99 100 100 100 100 100 100 99 98 98 97 96 96 96 96 97 96 97 96 96 94 94 95 95 88 68 51 45 44 43 41 34 31
83 80 91 95 93 94 96 97 100 100 99 99 99 97 97 98 98 97 97 97 96 95 96 96 97 96 95 95 95 94 95 97 96 96 92 76 58 51 48 44 37 33 38
80 79 79 77 70 50 50 68 77 90 99 99 97 96 97 97 97 97 97 96 96 96 96 96 95 96 95 94 94 96 96 97 97 97 91 77 60 52 47 40 36 44 56
10 7 6 6 11 15 23 47 67 73 97 100 100 100 99 97 97 96 96 96 96 96 96 96 96 96 96 96 96 96 96 96 96 96 90 76 61 50 41 37 48 57 59

GFSGL_700_rhum_063.txt.gz
RH
56 54 58 58 60 57 52 44 34 30 26 23 22 21 21 22 25 26 30 28 27 25 24 31 38 40 38 35 29 24 26 26 25 22 29 38 41 37 43 40 45 46 28
51 57 61 62 62 60 49 39 34 28 26 25 26 26 28 32 34 33 33 30 33 35 38 39 36 30 20 19 21 19 22 21 22 28 35 43 42 47 15 21 19 6 5
62 65 66 63 57 46 37 31 30 33 34 36 38 38 39 39 40 40 36 39 40 41 42 31 19 18 17 17 18 24 35 42 44 45 48 48 46 13 5 5 6 6 7
65 62 57 48 39 34 34 39 44 44 42 40 40 41 41 41 44 43 41 43 44 35 23 19 19 23 27 34 37 37 24 9 9 20 22 11 7 6 8 9 10 10 11
53 46 41 40 45 49 50 48 45 44 40 41 43 44 46 50 50 47 44 48 35 22 20 25 37 35 36 27 14 7 6 8 9 10 10 10 11 11 12 14 15 16 16
46 50 53 59 60 57 53 49 44 43 38 40 44 51 54 58 57 51 53 38 25 23 35 39 31 22 10 8 9 12 14 16 18 19 19 20 20 20 22 22 20 18 15
57 60 63 65 64 61 53 48 45 42 39 43 48 57 62 65 64 59 39 27 26 46 31 18 12 10 12 14 17 20 22 24 26 27 27 27 26 25 24 22 18 12 10
52 49 46 56 64 61 54 49 43 41 41 50 59 63 66 70 60 41 32 32 46 26 19 15 15 16 18 22 25 27 28 30 29 29 30 29 27 25 22 16 10 9 9
58 54 49 54 70 62 53 46 38 38 43 50 59 66 63 49 39 37 48 47 27 21 18 18 20 23 27 30 28 30 33 33 32 31 31 28 24 20 16 11 9 8 7
62 56 53 69 73 60 51 39 30 38 46 48 48 44 39 41 46 59 41 26 22 20 21 24 28 31 30 31 33 35 36 34 32 30 28 24 21 18 14 11 9 7 7
64 60 58 68 76 60 44 29 29 37 47 54 54 53 55 59 57 33 25 24 23 24 28 32 32 31 32 32 34 39 41 39 35 30 25 20 18 16 12 11 12 12 12
68 63 61 71 77 61 37 29 28 32 47 57 59 62 60 39 27 25 26 26 27 31 34 33 31 31 30 32 37 44 43 44 44 38 29 20 17 14 13 13 15 16 16
69 65 66 78 86 74 40 28 31 35 47 57 51 37 29 26 26 27 28 30 33 35 34 32 30 30 30 32 35 39 40 46 50 44 33 23 17 15 14 16 19 20 21
71 73 87 93 98 95 43 32 32 33 37 36 30 27 26 26 28 30 32 35 36 36 35 33 32 32 32 33 35 37 40 45 51 51 45 36 26 22 22 23 25 27 26
89 97 97 99 99 66 74 32 38 33 32 30 29 28 28 28 30 32 34 36 37 37 36 35 35 35 36 38 39 41 44 47 52 55 50 48 46 40 36 34 33 30 28
98 98 99 99 98 98 94 87 54 35 32 31 31 30 30 31 32 32 33 35 36 37 37 37 37 38 38 41 44 45 47 51 55 64 62 52 50 54 55 47 38 32 29
94 98 99 99 97 98 85 53 58 39 38 32 32 32 32 33 33 33 34 34 35 35 36 37 38 40 39 42 46 47 49 55 64 82 77 72 67 66 70 71 52 39 33
76 91 99 98 98 98 98 63 39 34 33 34 33 33 33 33 33 33 35 41 35 38 55 81 90 75 76 66 62 58 52 60 75 92 91 90 86 86 86 74 60 46 38
72 83 90 100 98 97 98 98 96 96 97 97 96 96 96 95 96 96 96 95 96 96 96 95 95 95 93 92 87 85 65 63 78 96 95 92 88 88 89 85 68 50 40
72 74 90 94 99 100 98 98 98 98 99 99 98 98 98 98 100 100 98 99 98 97 97 96 98 97 97 97 96 95 93 86 96 97 95 93 92 92 92 84 70 50 40
68 70 72 80 95 100 100 100 100 99 96 99 100 100 98 98 98 98 98 97 97 97 97 97 97 96 97 97 96 96 96 96 96 96 95 96 95 94 88 78 54 46 44
65 66 69 71 91 100 100 100 100 100 100 99 98 99 100 100 100 98 96 95 97 96 97 95 96 96 96 96 96 96 96 96 96 95 96 96 96 95 92 77 62 53 50
68 69 71 75 80 100 100 100 100 100 98 99 100 99 100 99 99 96 94 97 97 98 97 96 96 96 96 96 97 96 96 96 95 95 96 96 96 96 94 84 68 59 53
84 86 86 86 88 100 100 100 100 100 100 100 100 100 100 97 98 98 96 97 97 96 96 97 96 96 96 96 96 96 96 96 95 96 96 96 96 96 94 91 71 60 54
89 88 89 89 98 100 100 100 100 93 76 63 83 85 97 99 99 99 97 97 97 96 96 96 96 97 96 96 96 96 96 96 96 97 98 97 97 96 95 87 75 59 44
43 56 66 60 49 38 31 24 24 24 23 44 70 72 97 100 100 100 99 97 96 96 96 96 96 96 96 96 95 95 96 97 99 99 99 99 99 97 93 86 65 45 44

GFSGL_700_rhum_069.txt.gz
RH
80 79 82 86 90 86 75 69 75 81 75 74 66 58 54 44 34 31 28 25 24 25 27 31 32 32 32 30 32 37 44 43 44 57 36 26 22 20 26 32 37 40 34
47 57 70 69 59 53 55 70 78 84 78 65 61 57 43 37 29 26 29 31 31 33 34 36 39 36 34 39 42 43 38 25 24 22 21 22 33 41 44 41 40 36 6
30 37 39 37 40 52 63 68 70 69 65 62 57 46 36 30 30 34 37 38 38 38 39 40 43 41 41 43 44 32 21 21 20 22 37 38 37 42 41 31 14 6 7
30 31 34 37 37 44 55 62 68 68 61 53 42 35 36 40 42 40 40 39 40 43 44 46 48 44 45 44 28 21 22 28 36 39 12 7 7 11 8 9 10 11 12
32 36 42 44 53 60 67 70 66 57 46 41 48 51 49 46 42 42 41 40 42 48 53 56 54 52 46 28 22 34 40 38 15 6 9 13 15 16 18 19 20 22 22
45 49 53 61 69 70 60 52 53 56 55 56 56 55 51 47 44 42 41 41 49 56 62 61 58 47 30 28 43 33 14 7 10 14 17 21 23 25 27 27 27 26 26
50 50 50 50 51 54 60 62 57 56 60 64 64 59 53 48 44 40 41 50 61 66 68 65 50 34 41 47 18 8 10 15 18 22 26 29 28 29 30 30 29 27 25
56 53 54 57 62 63 57 55 51 48 50 59 60 57 50 41 36 40 50 64 73 76 73 55 41 56 43 14 10 14 18 23 28 30 31 34 33 32 31 29 26 24 21
61 60 60 60 62 60 62 56 52 50 48 57 62 54 41 32 35 47 60 74 82 74 56 48 54 21 10 12 17 22 28 31 32 35 36 36 34 31 28 26 24 22 21
68 68 68 64 60 62 63 60 59 57 53 59 62 40 29 33 45 53 69 74 66 56 63 46 19 14 16 22 28 32 32 34 35 37 40 41 40 38 35 30 25 22 19
78 72 69 70 66 61 65 67 67 61 58 62 66 32 36 48 50 50 53 57 57 63 35 20 17 21 27 33 35 33 34 34 36 39 40 38 43 46 45 39 30 23 18
80 80 79 75 71 67 70 69 69 66 63 66 65 52 64 55 62 57 59 62 64 36 22 21 24 30 36 36 33 32 32 33 34 36 37 39 45 50 52 49 40 32 26
77 79 82 84 88 71 72 72 72 71 71 80 88 65 55 61 70 72 74 58 29 24 23 26 31 36 38 35 33 33 32 32 34 36 39 42 46 52 55 55 52 48 43
71 72 73 71 72 75 75 76 78 75 78 91 97 89 64 69 73 66 42 28 26 26 27 30 35 38 38 37 35 35 34 35 36 39 43 47 53 56 59 67 68 61 55
80 80 80 80 81 82 81 84 90 85 88 94 92 77 67 61 45 32 26 26 27 28 30 33 36 38 38 38 37 37 37 38 39 42 65 80 50 56 61 76 81 80 72
96 97 94 96 98 98 96 100 100 99 99 90 56 70 70 56 33 27 26 26 28 30 31 34 35 36 38 39 43 67 65 54 65 91 92 60 49 57 64 74 86 88 88
98 97 92 83 81 79 98 98 97 100 100 100 92 93 61 38 30 28 28 28 29 30 31 33 49 67 80 91 95 95 90 94 96 96 96 79 64 66 68 72 85 89 90
98 98 93 89 83 79 94 100 100 98 98 100 98 57 44 44 38 43 36 35 44 67 60 72 57 45 59 93 95 88 96 97 97 96 95 95 88 84 81 80 86 91 92
99 90 99 93 87 82 77 96 100 98 97 97 98 96 93 81 74 80 84 86 92 91 93 97 97 97 96 97 97 97 97 96 96 96 96 96 96 96 94 95 95 94 94
88 96 98 96 88 86 83 82 100 98 97 98 97 97 92 84 67 90 98 99 98 97 97 97 97 97 96 96 98 97 94 96 96 96 96 96 96 95 97 96 95 95 96
94 94 84 98 87 87 90 85 83 100 99 97 97 97 96 97 100 100 100 99 97 98 98 95 95 96 97 97 98 97 94 98 97 93 97 98 98 97 96 96 96 95 95
85 97 91 98 90 80 86 85 84 82 100 100 100 98 99 100 100 100 100 100 100 98 96 97 95 96 97 97 97 98 97 97 96 97 97 95 96 96 96 96 96 96 96
91 98 99 98 89 81 82 80 80 87 97 100 100 100 100 100 100 100 100 100 96 96 99 99 99 99 97 96 97 98 98 97 98 96 96 96 97 96 96 96 96 96 96
74 93 98 98 90 86 84 82 84 88 100 100 100 100 100 100 99 100 100 92 78 84 89 95 100 98 98 98 98 97 97 97 95 97 96 96 96 96 96 96 96 97 97
93 98 97 98 100 100 100 100 99 100 100 100 98 98 98 100 100 100 84 48 58 68 89 96 98 98 98 97 96 96 94 94 95 96 96 96 96 96 98 98 97 96 95
93 96 97 100 100 100 100 100 100 98 98 99 98 100 100 94 62 29 34 52 72 90 95 96 96 94 93 93 94 95 96 96 96 94 94 95 98 98 97 97 98 96 95

GFSGL_700_rhum_072.txt.gz
RH
35 54 80 82 81 82 86 83 91 96 93 80 74 81 87 78 70 63 60 52 34 28 27 29 30 30 34 37 38 36 34 35 41 40 60 83 88 70 28 28 29 34 39
29 35 52 80 84 83 88 88 89 82 79 76 78 81 87 80 66 62 55 38 30 32 36 38 39 38 41 42 42 40 43 47 46 44 30 32 31 28 31 44 44 42 43
32 31 33 41 57 66 63 67 59 60 74 74 78 76 71 67 63 53 38 35 38 42 41 40 42 44 46 49 48 49 53 54 43 28 27 26 28 42 38 42 39 28 13
35 33 29 30 34 41 42 43 52 61 68 72 72 72 70 62 46 39 41 44 44 42 40 38 41 45 50 53 51 54 54 40 29 27 26 36 36 16 12 9 8 9 10
42 38 34 33 34 37 42 51 62 71 76 77 72 60 49 49 51 48 48 45 44 43 41 40 44 51 53 55 53 52 36 27 29 41 46 18 7 8 13 15 18 19 21
46 42 42 42 45 51 60 69 72 72 61 54 55 53 52 54 54 54 52 47 44 42 41 45 53 62 63 59 52 36 31 52 51 23 6 8 14 18 22 25 26 27 27
54 48 48 53 60 64 67 61 60 66 60 53 49 48 49 52 56 56 50 45 41 41 42 53 66 69 69 56 38 41 48 15 7 9 14 20 25 29 30 30 30 30 29
61 61 54 52 58 58 61 68 67 57 54 50 47 47 48 53 56 54 47 38 37 45 58 71 78 76 60 46 57 34 8 10 15 22 26 30 31 34 34 33 31 29 26
66 67 64 59 60 63 64 64 61 62 58 56 57 56 51 55 58 42 29 31 41 59 76 84 78 61 54 62 25 9 14 20 26 32 32 35 36 36 34 32 30 26 22
55 72 74 72 68 66 67 68 67 66 65 65 63 58 55 61 54 32 40 46 50 73 76 67 58 61 36 11 11 19 25 31 34 35 37 38 40 41 40 40 37 32 26
58 63 72 75 75 75 76 72 68 67 70 69 66 62 59 64 54 50 61 58 58 66 60 65 54 25 15 17 24 31 35 35 34 36 38 41 41 39 44 47 46 42 35
74 74 82 82 77 76 79 81 74 71 71 71 70 68 66 73 69 61 57 63 58 62 65 37 61 47 23 28 35 37 36 34 34 35 36 39 39 40 44 50 52 52 49
77 74 73 77 84 85 87 91 84 87 75 75 74 74 75 81 68 65 70 69 68 72 44 25 21 24 29 36 38 37 35 34 33 34 36 38 41 42 46 52 56 58 59
74 78 74 79 84 90 94 95 84 77 80 79 79 82 87 98 98 93 79 82 73 42 25 24 25 29 34 38 39 38 36 35 35 36 37 39 44 48 53 75 63 62 72
86 84 86 84 80 80 80 80 82 85 86 85 88 94 92 98 96 85 76 62 34 26 26 27 30 32 35 38 39 39 39 39 39 39 40 66 67 68 95 76 56 60 71
100 98 93 91 90 93 92 97 94 98 96 98 99 99 98 92 92 86 57 31 26 26 27 57 43 33 35 37 38 39 39 44 57 86 95 96 96 96 95 93 62 60 68
98 98 98 98 98 96 91 79 74 94 99 97 97 97 97 86 79 87 73 34 56 51 50 31 30 32 33 37 46 61 78 90 97 97 97 98 95 98 96 95 92 84 80
96 88 98 98 99 98 91 84 75 85 98 97 96 97 98 96 96 78 42 30 27 28 31 33 38 60 84 89 85 62 83 97 98 99 99 97 96 96 97 96 95 95 95
76 91 97 97 96 95 98 90 87 76 86 100 98 96 97 96 95 78 69 62 71 85 82 85 94 90 84 95 97 98 97 96 96 98 98 98 98 96 97 96 97 97 97
58 74 99 95 91 82 98 96 91 89 81 98 97 98 97 96 95 93 94 90 65 77 94 97 98 98 97 97 97 97 97 97 97 97 97 95 95 97 99 99 97 96 96
69 67 86 100 99 96 98 96 92 91 88 86 98 97 95 96 97 96 96 95 96 97 97 96 97 98 97 94 97 98 99 99 98 98 98 96 95 96 97 97 97 98 96
66 62 68 87 97 100 100 90 96 89 88 89 95 99 96 92 97 97 97 97 99 99 100 100 98 95 95 98 97 96 96 96 97 95 92 94 97 96 97 97 96 96 95
76 64 84 99 98 93 100 94 96 84 86 91 98 100 100 99 99 99 100 100 99 96 94 94 91 92 98 100 99 97 97 98 97 96 97 96 97 96 96 95 95 95 95
97 79 92 100 97 93 99 91 97 88 86 87 100 100 100 99 99 97 97 95 98 100 99 85 72 74 84 96 99 99 99 98 98 97 96 96 96 96 95 96 96 95 95
98 99 99 99 88 83 95 93 93 90 92 93 100 100 100 99 99 98 96 99 99 97 83 50 61 77 91 97 100 100 99 97 97 95 95 97 96 97 97 97 98 97 97
96 98 97 99 100 100 100 100 98 100 100 100 100 99 99 96 100 99 100 92 69 39 38 60 81 90 89 86 82 83 86 89 92 94 96 97 98 98 98 96 98 100 100

GFSGL_700_rhum_075.txt.gz
RH
30 33 48 57 56 78 82 76 79 88 85 88 94 99 99 97 81 85 83 87 86 69 65 50 36 35 38 39 40 41 41 42 41 37 39 51 57 98 88 65 76 33 33
30 30 32 36 41 65 83 81 81 80 89 91 90 95 94 83 82 82 83 86 69 66 56 38 42 42 40 39 40 44 46 49 48 48 52 63 72 50 60 40 35 42 50
31 32 32 31 31 40 54 79 84 84 84 86 87 70 67 77 76 76 71 68 66 52 40 43 44 45 44 41 42 46 50 54 54 55 57 57 44 36 35 35 45 51 47
31 31 36 36 33 31 35 41 53 62 61 60 57 66 72 75 72 69 66 57 45 48 50 47 45 43 43 43 45 53 54 58 61 62 56 40 33 30 38 43 39 15 9
31 30 40 41 39 34 32 34 39 44 47 50 58 64 69 71 65 52 50 51 50 53 49 48 46 44 44 44 49 58 61 59 61 52 38 34 35 47 38 9 9 12 15
27 34 44 43 40 38 35 36 40 49 61 70 72 70 58 57 57 55 56 59 59 57 53 48 45 43 45 50 61 67 65 58 46 39 44 56 52 9 8 14 19 24 26
27 25 47 47 44 48 50 52 57 65 72 68 64 61 53 49 47 45 44 45 48 50 49 44 38 43 53 65 74 73 63 46 46 54 34 9 8 14 20 26 29 30 31
40 30 41 57 51 54 62 69 70 64 62 65 59 55 52 52 53 52 49 48 52 47 35 31 40 56 72 81 78 64 52 61 26 8 12 18 23 29 31 33 34 34 32
48 49 38 63 61 58 59 60 65 66 66 60 59 60 58 60 59 55 53 56 51 35 44 47 59 78 84 77 62 68 43 11 11 19 29 31 33 35 37 37 34 32 30
53 66 53 54 69 65 63 63 68 67 66 63 65 66 65 67 64 58 54 56 48 51 59 61 75 77 68 65 52 18 12 18 28 33 35 34 36 38 38 40 40 38 38
56 68 72 55 57 71 70 66 64 67 68 66 65 69 70 70 68 65 62 62 66 62 58 62 68 66 63 23 14 17 29 53 55 35 37 38 39 42 43 41 41 45 46
52 62 72 67 58 65 76 75 73 74 77 76 72 72 74 74 74 70 68 68 67 59 62 60 64 56 26 61 49 49 44 37 38 37 36 37 40 41 41 41 44 49 51
48 65 72 73 74 76 85 83 79 78 80 82 83 82 84 79 77 75 74 82 74 78 66 65 58 28 62 80 43 34 39 38 37 36 35 35 36 38 42 44 46 50 54
62 74 69 76 78 76 77 81 89 89 88 90 93 88 82 84 81 85 83 96 94 81 76 70 37 22 23 26 32 38 40 40 38 38 37 37 38 40 42 50 80 93 95
85 92 86 81 80 77 77 85 88 93 94 89 83 83 85 87 88 91 89 93 84 84 78 46 24 24 29 30 34 38 40 40 41 46 48 50 52 47 66 92 96 96 96
100 100 100 100 90 86 85 83 84 85 87 89 89 94 94 92 99 98 98 96 86 73 45 26 25 26 31 32 35 65 42 39 47 56 58 68 86 95 98 95 95 96 98
99 100 94 99 98 97 97 95 93 91 82 74 79 87 88 93 96 97 96 96 86 47 28 26 28 45 67 56 79 37 37 47 69 92 96 98 97 95 95 97 96 96 96
69 68 98 94 97 98 99 98 97 94 86 77 86 98 95 97 96 97 96 95 94 70 60 84 77 55 31 30 34 52 81 94 94 89 95 96 96 97 98 97 95 95 96
75 56 96 98 98 97 98 98 97 98 98 91 83 89 99 98 97 96 96 94 96 72 32 27 30 37 46 66 91 96 94 97 96 97 97 96 97 97 96 96 96 96 97
84 86 60 88 100 99 97 98 99 96 98 100 92 89 100 96 94 96 96 96 96 94 62 67 89 94 95 96 97 98 99 98 98 98 98 97 98 96 97 97 96 96 96
32 80 89 84 80 100 100 99 100 100 100 99 96 94 100 96 94 91 93 99 97 95 95 96 96 98 98 98 98 98 98 99 99 98 97 96 96 95 96 97 97 96 95
29 41 74 84 84 84 100 100 98 99 100 98 99 100 100 90 93 96 95 95 96 96 96 96 98 98 97 97 98 99 100 99 98 98 98 97 96 97 98 97 97 96 96
47 43 56 78 82 81 90 100 100 100 98 98 98 100 100 93 88 97 96 98 99 97 98 99 100 99 99 100 100 98 94 98 100 99 98 97 96 96 96 95 94 95 96
87 76 67 73 86 79 82 100 100 100 97 98 98 98 100 100 99 100 99 98 99 99 97 94 96 97 97 94 82 76 85 98 99 98 97 97 99 99 98 95 95 94 93
100 100 88 85 95 87 94 100 100 100 100 98 98 97 100 100 100 100 97 99 100 93 92 100 100 100 94 64 71 89 100 99 99 99 96 96 94 92 93 95 94 94 95
98 100 98 92 92 96 97 98 92 88 97 98 98 98 98 99 100 100 99 97 99 98 99 100 98 69 54 76 92 92 87 84 84 84 86 89 90 91 92 94 95 97 100